EW0263 Weather Reports


time (UTC)temp
C
wind
direction
speed
KPH
gust
KPH
rain 1hr
cm
rain 24hr
cm
rain mn
cm
humidity
%
barometer
mb
20190422175514 8 337 3.2 6.4 0.00 0.00 0.00 83 1019.5
20190422175414 8 337 1.6 3.2 0.00 0.00 0.00 84 1019.6
20190422175315 8 337 1.6 3.2 0.00 0.00 0.00 84 1019.6
20190422175214 8 337 1.6 3.2 0.00 0.00 0.00 84 1019.5
20190422175114 8 315 1.6 4.8 0.00 0.00 0.00 84 1019.5
20190422175014 8 315 1.6 3.2 0.00 0.00 0.00 84 1019.5
20190422174915 8 315 1.6 4.8 0.00 0.00 0.00 83 1019.6
20190422174814 8 315 3.2 4.8 0.00 0.00 0.00 83 1019.5
20190422174715 8 292 1.6 6.4 0.00 0.00 0.00 83 1019.6
20190422174630 8 292 1.6 3.2 0.00 0.00 0.00 83 1019.5
20190422174514 8 315 3.2 8.0 0.00 0.00 0.00 84 1019.5
20190422174414 8 315 1.6 4.8 0.00 0.00 0.00 83 1019.6
20190422174314 8 337 3.2 4.8 0.00 0.00 0.00 83 1019.6
20190422174214 8 315 3.2 4.8 0.00 0.00 0.00 84 1019.5
20190422174115 8 315 4.8 8.0 0.00 0.00 0.00 84 1019.6
20190422174014 8 315 4.8 9.7 0.00 0.00 0.00 84 1019.6
20190422173914 8 337 4.8 8.0 0.00 0.00 0.00 84 1019.6
20190422173814 8 337 3.2 8.0 0.00 0.00 0.00 84 1019.6
20190422173714 8 337 4.8 8.0 0.00 0.00 0.00 84 1019.7
20190422173615 8 315 4.8 8.0 0.00 0.00 0.00 84 1019.7
20190422173515 8 337 3.2 8.0 0.00 0.00 0.00 84 1019.6
20190422173414 8 315 4.8 6.4 0.00 0.00 0.00 84 1019.7
20190422173314 8 315 4.8 6.4 0.00 0.00 0.00 84 1019.7
20190422173214 8 315 3.2 6.4 0.00 0.00 0.00 84 1019.7
20190422173114 8 292 3.2 8.0 0.00 0.00 0.00 84 1019.7
20190422173014 8 315 3.2 8.0 0.00 0.00 0.00 84 1019.7
20190422172914 8 315 1.6 4.8 0.00 0.00 0.00 84 1019.7
20190422172815 8 315 3.2 6.4 0.00 0.00 0.00 84 1019.7
20190422172714 8 337 3.2 6.4 0.00 0.00 0.00 84 1019.7
20190422172614 8 315 4.8 8.0 0.00 0.00 0.00 84 1019.7
20190422172514 8 315 3.2 4.8 0.00 0.00 0.00 84 1019.7
20190422172414 8 337 1.6 3.2 0.00 0.00 0.00 84 1019.7
20190422172314 8 337 1.6 6.4 0.00 0.00 0.00 84 1019.7
20190422172214 8 292 1.6 4.8 0.00 0.00 0.00 83 1019.7
20190422172114 8 0.0 0.0 0.00 0.00 0.00 83 1019.7
20190422172014 8 0.0 0.0 0.00 0.00 0.00 83 1019.8
20190422171914 8 0.0 1.6 0.00 0.00 0.00 83 1019.8
20190422171814 8 292 1.6 3.2 0.00 0.00 0.00 83 1019.8
20190422171714 8 315 3.2 4.8 0.00 0.00 0.00 83 1019.8
20190422171614 8 0.0 1.6 0.00 0.00 0.00 83 1019.8
20190422171514 8 315 1.6 1.6 0.00 0.00 0.00 83 1019.8
20190422171414 8 315 1.6 3.2 0.00 0.00 0.00 83 1019.9
20190422171314 8 0.0 1.6 0.00 0.00 0.00 83 1019.8
20190422171214 8 0.0 1.6 0.00 0.00 0.00 83 1019.9
20190422171114 8 0.0 1.6 0.00 0.00 0.00 83 1019.9
20190422171014 8 0.0 0.0 0.00 0.00 0.00 83 1019.9
20190422170914 8 0.0 0.0 0.00 0.00 0.00 83 1019.9
20190422170814 8 0.0 0.0 0.00 0.00 0.00 83 1019.9
20190422170714 8 0.0 0.0 0.00 0.00 0.00 83 1019.9
20190422170614 8 0.0 0.0 0.00 0.00 0.00 83 1019.9
20190422170514 8 0.0 0.0 0.00 0.00 0.00 83 1019.9
20190422170415 8 0.0 0.0 0.00 0.00 0.00 83 1019.9
20190422170315 8 0.0 0.0 0.00 0.00 0.00 83 1019.9
20190422170214 8 0.0 0.0 0.00 0.00 0.00 84 1019.9
20190422170114 8 0.0 1.6 0.00 0.00 0.00 84 1019.8
20190422170014 8 0.0 0.0 0.00 0.00 0.00 84 1019.8
20190422165914 8 0.0 0.0 0.00 0.00 0.00 84 1019.9
20190422165814 8 0.0 0.0 0.00 0.00 0.00 83 1019.9
20190422165714 8 0.0 1.6 0.00 0.00 0.00 83 1019.9
20190422165614 8 0.0 1.6 0.00 0.00 0.00 83 1019.9
20190422165514 8 315 1.6 4.8 0.00 0.00 0.00 83 1019.9
20190422165414 8 0.0 1.6 0.00 0.00 0.00 83 1019.9
20190422165314 8 247 1.6 6.4 0.00 0.00 0.00 83 1019.9
20190422165215 8 0.0 1.6 0.00 0.00 0.00 83 1019.9
20190422165114 8 0.0 1.6 0.00 0.00 0.00 83 1019.9
20190422165014 8 337 1.6 3.2 0.00 0.00 0.00 83 1019.9
20190422164914 8 0.0 4.8 0.00 0.00 0.00 83 1019.9
20190422164815 8 0.0 0.0 0.00 0.00 0.00 83 1019.9
20190422164714 8 0.0 0.0 0.00 0.00 0.00 83 1019.9
20190422164615 8 0.0 3.2 0.00 0.00 0.00 83 1019.9
20190422164515 8 337 1.6 3.2 0.00 0.00 0.00 83 1019.9
20190422164414 8 337 1.6 4.8 0.00 0.00 0.00 83 1019.9
20190422164314 8 315 3.2 6.4 0.00 0.00 0.00 83 1019.9
20190422164214 8 0.0 1.6 0.00 0.00 0.00 83 1019.9
20190422164114 9 315 1.6 3.2 0.00 0.00 0.00 83 1019.8
20190422164014 9 315 1.6 3.2 0.00 0.00 0.00 83 1019.9
20190422163914 9 0 3.2 6.4 0.00 0.00 0.00 83 1019.9
20190422163815 9 0.0 3.2 0.00 0.00 0.00 83 1019.9
20190422163714 9 0.0 1.6 0.00 0.00 0.00 83 1019.9
20190422163615 9 0.0 1.6 0.00 0.00 0.00 83 1019.9
20190422163514 9 315 1.6 3.2 0.00 0.00 0.00 83 1019.9
20190422163414 9 315 1.6 4.8 0.00 0.00 0.00 83 1019.9
20190422163314 9 0.0 1.6 0.00 0.00 0.00 83 1019.9
20190422163214 9 315 3.2 6.4 0.00 0.00 0.00 82 1019.9
20190422163114 9 270 1.6 4.8 0.00 0.00 0.00 82 1020.0
20190422163014 9 247 1.6 3.2 0.00 0.00 0.00 82 1020.0
20190422162914 9 315 1.6 3.2 0.00 0.00 0.00 82 1020.0
20190422162815 9 315 3.2 4.8 0.00 0.00 0.00 82 1020.0
20190422162714 9 292 3.2 6.4 0.00 0.00 0.00 82 1020.0
20190422162614 9 292 1.6 4.8 0.00 0.00 0.00 82 1019.9
20190422162514 9 292 1.6 3.2 0.00 0.00 0.00 82 1019.9
20190422162414 9 292 1.6 3.2 0.00 0.00 0.00 82 1019.9
20190422162314 9 315 1.6 3.2 0.00 0.00 0.00 82 1019.9
20190422162214 9 315 3.2 4.8 0.00 0.00 0.00 82 1019.9
20190422162114 9 0 1.6 4.8 0.00 0.00 0.00 82 1019.9
20190422162014 9 22 1.6 3.2 0.00 0.00 0.00 82 1019.9
20190422161914 9 22 3.2 8.0 0.00 0.00 0.00 82 1020.0
20190422161814 9 0 3.2 4.8 0.00 0.00 0.00 82 1020.0
20190422161714 9 337 4.8 8.0 0.00 0.00 0.00 82 1020.0
20190422161614 9 22 3.2 6.4 0.00 0.00 0.00 82 1020.0
20190422161514 10 45 3.2 4.8 0.00 0.00 0.00 82 1020.0
20190422161414 10 22 3.2 4.8 0.00 0.00 0.00 81 1020.0
20190422161314 10 22 1.6 4.8 0.00 0.00 0.00 81 1020.0
20190422161214 10 22 3.2 6.4 0.00 0.00 0.00 81 1020.0
20190422161114 10 337 1.6 4.8 0.00 0.00 0.00 81 1020.0
20190422161014 10 337 1.6 4.8 0.00 0.00 0.00 81 1019.9
20190422160914 10 0 1.6 3.2 0.00 0.00 0.00 81 1019.9
20190422160814 10 0 1.6 3.2 0.00 0.00 0.00 81 1019.9
20190422160714 10 45 3.2 4.8 0.00 0.00 0.00 81 1019.9
20190422160614 10 45 3.2 4.8 0.00 0.00 0.00 81 1019.9
20190422160514 10 22 1.6 4.8 0.00 0.00 0.00 80 1019.9
20190422160414 10 22 3.2 4.8 0.00 0.00 0.00 80 1019.9
20190422160314 10 22 1.6 3.2 0.00 0.00 0.00 80 1019.9
20190422160215 10 22 3.2 6.4 0.00 0.00 0.00 80 1019.9
20190422160114 10 45 3.2 4.8 0.00 0.00 0.00 80 1019.9
20190422160014 10 45 3.2 4.8 0.00 0.00 0.00 81 1019.9
20190422155914 10 45 3.2 6.4 0.00 0.00 0.00 81 1019.9
20190422155814 10 0 3.2 4.8 0.00 0.00 0.00 81 1020.0
20190422155714 10 22 3.2 8.0 0.00 0.00 0.00 81 1020.0
20190422155614 10 22 3.2 6.4 0.00 0.00 0.00 81 1019.9
20190422155514 10 22 4.8 11.3 0.00 0.00 0.00 81 1020.0
20190422155414 10 337 3.2 4.8 0.00 0.00 0.00 81 1019.9
20190422155314 10 337 3.2 8.0 0.00 0.00 0.00 81 1019.9
20190422155214 10 337 4.8 9.7 0.00 0.00 0.00 81 1019.9
20190422155114 10 315 4.8 8.0 0.00 0.03 0.00 81 1020.0
20190422155014 10 337 4.8 8.0 0.00 0.03 0.00 82 1019.9
20190422154914 10 22 3.2 6.4 0.00 0.03 0.00 82 1020.0
20190422154814 10 0 1.6 6.4 0.00 0.03 0.00 82 1020.0
20190422154714 10 22 1.6 3.2 0.00 0.03 0.00 82 1020.0
20190422154614 10 22 3.2 4.8 0.00 0.03 0.00 82 1020.0
20190422154514 10 45 1.6 4.8 0.00 0.03 0.00 82 1020.0
20190422154414 10 22 4.8 9.7 0.00 0.03 0.00 82 1020.0
20190422154314 9 22 3.2 4.8 0.00 0.03 0.00 82 1020.1
20190422154214 9 45 3.2 4.8 0.00 0.03 0.00 82 1020.0
20190422154114 9 0 4.8 11.3 0.00 0.03 0.00 82 1020.1
20190422154014 9 22 4.8 8.0 0.00 0.03 0.00 82 1020.1
20190422153914 9 0 4.8 9.7 0.00 0.03 0.00 82 1020.1
20190422153814 9 22 3.2 9.7 0.00 0.03 0.00 82 1020.1
20190422153714 9 0 4.8 9.7 0.00 0.03 0.00 82 1020.1
20190422153614 9 337 4.8 9.7 0.00 0.03 0.00 82 1020.1
20190422153514 9 337 6.4 9.7 0.00 0.03 0.00 82 1020.1
20190422153414 9 315 8.0 11.3 0.00 0.05 0.00 82 1020.1
20190422153314 9 315 4.8 9.7 0.00 0.05 0.00 82 1020.0
20190422153214 9 337 6.4 9.7 0.00 0.05 0.00 82 1020.1
20190422153114 10 315 6.4 8.0 0.00 0.05 0.00 82 1020.1
20190422153014 10 315 6.4 9.7 0.00 0.05 0.00 82 1020.1
20190422152914 10 337 6.4 9.7 0.00 0.05 0.00 81 1020.1
20190422152814 10 0 3.2 6.4 0.00 0.05 0.00 81 1020.1
20190422152714 10 337 6.4 8.0 0.00 0.08 0.00 81 1020.2
20190422152614 10 337 4.8 8.0 0.00 0.08 0.00 81 1020.2
20190422152514 10 337 1.6 3.2 0.00 0.08 0.00 81 1020.1
20190422152414 10 0 3.2 6.4 0.00 0.08 0.00 81 1020.1
20190422152314 10 337 4.8 9.7 0.00 0.08 0.00 81 1020.1
20190422152214 10 337 4.8 8.0 0.00 0.08 0.00 81 1020.1
20190422152114 10 0 3.2 6.4 0.00 0.08 0.00 81 1020.1
20190422152014 10 0 4.8 14.5 0.00 0.08 0.00 81 1020.1
20190422151914 10 22 3.2 9.7 0.00 0.08 0.00 81 1020.1
20190422151814 10 22 6.4 11.3 0.00 0.08 0.00 81 1020.2
20190422151714 10 0 4.8 8.0 0.00 0.08 0.00 81 1020.2
20190422151614 10 337 3.2 8.0 0.00 0.08 0.00 81 1020.1
20190422151514 10 22 3.2 6.4 0.00 0.08 0.00 81 1020.1
20190422151414 10 337 4.8 8.0 0.00 0.08 0.00 81 1020.1
20190422151314 10 315 3.2 6.4 0.00 0.08 0.00 81 1020.1
20190422151214 10 22 4.8 9.7 0.00 0.08 0.00 81 1020.1
20190422151114 10 337 1.6 3.2 0.00 0.08 0.00 81 1020.1
20190422151014 10 22 4.8 9.7 0.00 0.08 0.00 80 1020.1
20190422150914 10 337 4.8 6.4 0.00 0.08 0.00 80 1020.1
20190422150814 10 22 4.8 8.0 0.00 0.08 0.00 80 1020.2
20190422150714 10 337 6.4 9.7 0.00 0.08 0.00 80 1020.2
20190422150614 10 337 4.8 8.0 0.00 0.08 0.00 80 1020.1
20190422150514 10 315 1.6 4.8 0.00 0.08 0.00 80 1020.1
20190422150414 10 0 1.6 4.8 0.00 0.08 0.00 80 1020.1
20190422150314 10 22 3.2 6.4 0.00 0.08 0.00 80 1020.1
20190422150214 10 45 3.2 6.4 0.00 0.08 0.00 80 1020.1
20190422150114 10 22 4.8 9.7 0.00 0.08 0.00 80 1020.1
20190422150014 10 22 3.2 4.8 0.00 0.08 0.00 80 1020.1
20190422145914 10 22 1.6 4.8 0.00 0.08 0.00 80 1020.2
20190422145814 10 45 4.8 9.7 0.00 0.08 0.00 80 1020.2
20190422145714 10 22 3.2 6.4 0.00 0.08 0.00 80 1020.2
20190422145614 10 22 3.2 6.4 0.00 0.08 0.00 80 1020.2
20190422145514 10 22 3.2 6.4 0.00 0.08 0.00 80 1020.2
20190422145414 10 0 1.6 3.2 0.00 0.08 0.00 80 1020.3
20190422145314 10 0 1.6 3.2 0.00 0.08 0.00 80 1020.2
20190422145214 10 337 1.6 4.8 0.00 0.08 0.00 80 1020.2
20190422145114 10 0 1.6 3.2 0.00 0.08 0.00 80 1020.3
20190422145014 10 0 3.2 4.8 0.00 0.08 0.00 80 1020.2
20190422144914 10 337 3.2 4.8 0.00 0.08 0.00 80 1020.2
20190422144814 10 337 3.2 4.8 0.00 0.08 0.00 80 1020.2
20190422144714 10 337 4.8 6.4 0.00 0.08 0.00 80 1020.3
20190422144614 10 22 3.2 4.8 0.00 0.08 0.00 80 1020.3
20190422144519 10 22 1.6 3.2 0.00 0.08 0.00 80 1020.3
20190422144414 10 22 3.2 4.8 0.00 0.08 0.00 80 1020.3
20190422144314 10 45 1.6 3.2 0.00 0.08 0.00 80 1020.3
20190422144214 10 0 1.6 3.2 0.00 0.08 0.00 80 1020.3
20190422144114 10 0 1.6 4.8 0.00 0.08 0.00 80 1020.3
20190422144014 10 0 3.2 6.4 0.00 0.08 0.00 80 1020.3
20190422143914 10 337 3.2 6.4 0.00 0.08 0.00 80 1020.3
20190422143814 10 337 3.2 6.4 0.00 0.08 0.00 80 1020.3
20190422143714 10 337 4.8 8.0 0.00 0.08 0.00 80 1020.3
20190422143614 10 337 4.8 6.4 0.00 0.08 0.00 80 1020.3
20190422143514 10 337 1.6 6.4 0.00 0.08 0.00 80 1020.2
20190422143414 10 337 3.2 4.8 0.00 0.08 0.00 80 1020.2
20190422143314 10 337 3.2 8.0 0.00 0.08 0.00 80 1020.2
20190422143214 10 337 3.2 4.8 0.00 0.08 0.00 80 1020.2
20190422143114 10 315 6.4 8.0 0.00 0.08 0.00 80 1020.2
20190422143014 10 337 3.2 6.4 0.00 0.08 0.00 80 1020.1
20190422142914 10 337 4.8 6.4 0.00 0.08 0.00 80 1020.1
20190422142814 10 337 3.2 8.0 0.00 0.08 0.00 80 1020.1
20190422142714 10 337 3.2 6.4 0.00 0.08 0.00 80 1020.1
20190422142614 10 337 3.2 6.4 0.00 0.08 0.00 80 1020.1
20190422142514 10 337 3.2 6.4 0.00 0.08 0.00 80 1020.1
20190422142414 10 0 3.2 4.8 0.00 0.08 0.00 80 1020.1
20190422142314 10 0 4.8 11.3 0.00 0.08 0.00 80 1020.1
20190422142214 10 0 3.2 8.0 0.00 0.08 0.00 80 1020.2
20190422142114 10 90 6.4 12.9 0.00 0.08 0.00 80 1020.2
20190422142014 10 22 3.2 11.3 0.00 0.08 0.00 80 1020.1
20190422141914 10 22 4.8 8.0 0.00 0.08 0.00 79 1020.1
20190422141814 10 22 6.4 11.3 0.00 0.08 0.00 79 1020.1
20190422141714 10 22 6.4 11.3 0.00 0.08 0.00 79 1020.2
20190422141614 10 45 6.4 11.3 0.00 0.08 0.00 79 1020.2
20190422141514 10 22 9.7 17.7 0.00 0.08 0.00 79 1020.2
20190422141414 10 90 4.8 20.9 0.00 0.08 0.00 78 1020.2
20190422141314 10 22 9.7 20.9 0.00 0.08 0.00 78 1020.2
20190422141214 10 22 9.7 14.5 0.00 0.08 0.00 78 1020.3
20190422141114 10 45 8.0 17.7 0.00 0.08 0.00 78 1020.3
20190422141014 10 22 8.0 14.5 0.00 0.08 0.00 78 1020.3
20190422140914 10 22 6.4 11.3 0.00 0.08 0.00 78 1020.3
20190422140814 10 45 4.8 11.3 0.00 0.08 0.00 78 1020.3
20190422140714 10 45 4.8 11.3 0.00 0.08 0.00 78 1020.3
20190422140614 10 45 4.8 8.0 0.00 0.08 0.00 78 1020.4
20190422140514 10 67 4.8 6.4 0.00 0.08 0.00 77 1020.4
20190422140414 11 22 4.8 8.0 0.00 0.08 0.00 77 1020.4
20190422140314 11 22 8.0 14.5 0.00 0.08 0.00 77 1020.4
20190422140218 11 0 6.4 14.5 0.00 0.08 0.00 77 1020.4
20190422140116 11 0 3.2 6.4 0.00 0.08 0.00 77 1020.4
20190422140016 11 45 8.0 14.5 0.00 0.08 0.08 77 1020.3
20190422135916 11 315 6.4 11.3 0.00 0.08 0.08 77 1020.4
20190422135816 11 337 6.4 9.7 0.00 0.08 0.08 77 1020.4
20190422135716 11 22 6.4 9.7 0.00 0.08 0.08 77 1020.4
20190422135615 11 22 6.4 14.5 0.00 0.08 0.08 77 1020.4
20190422135516 10 337 6.4 11.3 0.00 0.08 0.08 77 1020.3
20190422135416 10 337 4.8 6.4 0.00 0.08 0.08 77 1020.4
20190422135315 10 337 8.0 19.3 0.00 0.08 0.08 77 1020.4
20190422135215 10 337 4.8 8.0 0.00 0.08 0.08 77 1020.4
20190422135116 10 22 4.8 8.0 0.00 0.08 0.08 77 1020.4
20190422135016 10 22 3.2 9.7 0.00 0.08 0.08 77 1020.4
20190422134915 10 0 3.2 8.0 0.00 0.08 0.08 77 1020.4
20190422134816 10 22 3.2 6.4 0.00 0.08 0.08 77 1020.4
20190422134715 10 0 3.2 6.4 0.00 0.08 0.08 77 1020.4
20190422134616 10 45 3.2 6.4 0.00 0.08 0.08 77 1020.4
20190422134517 10 337 3.2 9.7 0.00 0.08 0.08 77 1020.5
20190422134416 10 337 1.6 4.8 0.00 0.08 0.08 77 1020.5
20190422134316 10 337 3.2 8.0 0.00 0.08 0.08 77 1020.5
20190422134216 10 0 4.8 8.0 0.00 0.08 0.08 77 1020.6
20190422134116 10 337 4.8 11.3 0.00 0.08 0.08 76 1020.5
20190422134015 10 315 6.4 8.0 0.00 0.08 0.08 76 1020.5
20190422133916 10 315 6.4 9.7 0.00 0.08 0.08 76 1020.5
20190422133816 10 315 4.8 6.4 0.00 0.08 0.08 76 1020.5
20190422133716 10 337 3.2 4.8 0.00 0.08 0.08 77 1020.5
20190422133616 10 315 6.4 9.7 0.00 0.08 0.08 77 1020.6
20190422133516 10 315 6.4 9.7 0.00 0.08 0.08 77 1020.6
20190422133415 10 315 6.4 9.7 0.00 0.08 0.08 77 1020.6
20190422133316 10 337 4.8 8.0 0.00 0.08 0.08 77 1020.6
20190422133215 10 315 4.8 8.0 0.00 0.08 0.08 77 1020.6
20190422133115 10 315 3.2 6.4 0.00 0.08 0.08 76 1020.5
20190422133016 10 337 6.4 9.7 0.00 0.08 0.08 76 1020.5
20190422132916 10 337 4.8 8.0 0.00 0.08 0.08 76 1020.6
20190422132815 10 315 3.2 8.0 0.00 0.08 0.08 76 1020.6
20190422132716 10 337 3.2 6.4 0.00 0.08 0.08 76 1020.6
20190422132615 11 337 3.2 8.0 0.00 0.08 0.08 76 1020.6
20190422132516 11 337 1.6 4.8 0.00 0.08 0.08 76 1020.6
20190422132415 11 337 3.2 4.8 0.00 0.08 0.08 76 1020.6
20190422132316 11 337 3.2 4.8 0.00 0.08 0.08 76 1020.6
20190422132215 11 337 1.6 4.8 0.00 0.08 0.08 76 1020.6
20190422132116 11 0 3.2 6.4 0.00 0.08 0.08 76 1020.6
20190422132016 11 337 1.6 4.8 0.00 0.08 0.08 76 1020.6
20190422131916 11 337 3.2 4.8 0.00 0.08 0.08 76 1020.6
20190422131815 11 337 3.2 4.8 0.00 0.08 0.08 75 1020.6
20190422131715 11 337 3.2 4.8 0.00 0.08 0.08 75 1020.6
20190422131615 11 337 3.2 6.4 0.00 0.08 0.08 76 1020.6
20190422131515 11 315 3.2 4.8 0.00 0.08 0.08 75 1020.5
20190422131416 11 315 3.2 6.4 0.00 0.08 0.08 75 1020.6
20190422131316 11 315 4.8 8.0 0.00 0.08 0.08 75 1020.6
20190422131216 11 315 3.2 4.8 0.00 0.08 0.08 75 1020.6
20190422131116 11 337 3.2 4.8 0.00 0.08 0.08 75 1020.6
20190422131015 11 337 3.2 6.4 0.00 0.08 0.08 75 1020.6
20190422130915 11 337 4.8 4.8 0.00 0.08 0.08 75 1020.6
20190422130815 11 0 3.2 6.4 0.00 0.08 0.08 75 1020.7
20190422130715 11 22 3.2 8.0 0.00 0.08 0.08 75 1020.6
20190422130615 11 22 1.6 4.8 0.00 0.08 0.08 75 1020.7
20190422130516 11 22 1.6 6.4 0.00 0.08 0.08 75 1020.7
20190422130415 11 337 3.2 6.4 0.00 0.08 0.08 75 1020.7
20190422130315 11 0 1.6 4.8 0.00 0.08 0.08 75 1020.7
20190422130215 11 22 3.2 6.4 0.00 0.08 0.08 75 1020.8
20190422130115 11 45 4.8 6.4 0.00 0.08 0.08 75 1020.8
20190422130016 11 45 3.2 8.0 0.00 0.08 0.08 75 1020.8
20190422125916 11 0 3.2 6.4 0.00 0.08 0.08 75 1020.7
20190422125815 11 45 1.6 4.8 0.00 0.08 0.08 75 1020.7
20190422125716 11 0 3.2 4.8 0.00 0.08 0.08 75 1020.6
20190422125615 11 22 4.8 9.7 0.00 0.08 0.08 75 1020.7
20190422125515 11 45 3.2 4.8 0.00 0.08 0.08 75 1020.7
20190422125416 11 22 1.6 4.8 0.00 0.08 0.08 75 1020.7
20190422125316 11 45 1.6 4.8 0.00 0.08 0.08 75 1020.7
20190422125215 11 22 3.2 4.8 0.00 0.08 0.08 75 1020.7
20190422125116 11 45 1.6 4.8 0.00 0.08 0.08 75 1020.8
20190422125016 11 45 3.2 4.8 0.00 0.08 0.08 75 1020.8
20190422124915 11 45 3.2 4.8 0.00 0.08 0.08 75 1020.8
20190422124815 11 22 1.6 4.8 0.00 0.08 0.08 75 1020.8
20190422124715 11 22 3.2 8.0 0.00 0.08 0.08 74 1020.8
20190422124616 11 0 1.6 4.8 0.00 0.08 0.08 74 1020.8
20190422124516 11 0 1.6 3.2 0.00 0.08 0.08 74 1020.8
20190422124415 11 0 1.6 3.2 0.00 0.08 0.08 74 1020.8
20190422124315 11 0.0 3.2 0.00 0.08 0.08 74 1020.8
20190422124215 11 0.0 0.0 0.00 0.08 0.08 74 1020.8
20190422124115 11 0.0 1.6 0.00 0.08 0.08 74 1020.8
20190422124015 11 0.0 0.0 0.00 0.08 0.08 74 1020.8
20190422123915 11 0.0 1.6 0.00 0.08 0.08 74 1020.9
20190422123816 11 337 1.6 3.2 0.00 0.08 0.08 74 1020.9
20190422123716 11 337 1.6 3.2 0.00 0.08 0.08 74 1020.8
20190422123615 11 337 1.6 3.2 0.00 0.08 0.08 74 1020.8
20190422123515 11 337 1.6 3.2 0.00 0.08 0.08 74 1020.8
20190422123416 11 337 3.2 6.4 0.00 0.08 0.08 74 1020.8
20190422123316 11 337 1.6 1.6 0.00 0.08 0.08 74 1020.8
20190422123215 11 337 1.6 1.6 0.00 0.08 0.08 74 1020.8
20190422123116 11 337 1.6 3.2 0.00 0.08 0.08 74 1020.7
20190422123016 11 337 3.2 6.4 0.00 0.08 0.08 74 1020.7
20190422122915 11 337 3.2 6.4 0.00 0.08 0.08 74 1020.8
20190422122815 11 22 3.2 4.8 0.00 0.08 0.08 74 1020.8
20190422122715 11 0 1.6 6.4 0.00 0.08 0.08 75 1020.8
20190422122615 11 45 3.2 6.4 0.00 0.08 0.08 75 1020.8
20190422122515 11 337 3.2 4.8 0.00 0.08 0.08 75 1020.8
20190422122416 11 0 3.2 6.4 0.00 0.08 0.08 75 1020.7
20190422122315 11 315 1.6 6.4 0.00 0.08 0.08 75 1020.8
20190422122215 11 337 3.2 6.4 0.00 0.08 0.08 75 1020.7
20190422122116 11 337 3.2 6.4 0.00 0.08 0.08 75 1020.8
20190422122015 11 337 3.2 6.4 0.00 0.08 0.08 76 1020.7
20190422121915 11 337 3.2 4.8 0.00 0.08 0.08 76 1020.8
20190422121815 11 0 3.2 6.4 0.00 0.08 0.08 76 1020.8
20190422121716 11 0.0 1.6 0.00 0.08 0.08 76 1020.8
20190422121615 11 45 1.6 3.2 0.00 0.08 0.08 76 1020.8
20190422121516 11 22 3.2 3.2 0.00 0.08 0.08 76 1020.8
20190422121415 11 22 1.6 4.8 0.00 0.08 0.08 75 1020.7
20190422121315 11 22 1.6 3.2 0.00 0.08 0.08 75 1020.8
20190422121215 11 337 1.6 3.2 0.00 0.08 0.08 75 1020.7
20190422121115 11 337 3.2 6.4 0.00 0.08 0.08 75 1020.8
20190422121015 11 337 3.2 6.4 0.00 0.08 0.08 75 1020.7
20190422120915 11 337 3.2 4.8 0.00 0.08 0.08 75 1020.7
20190422120815 11 337 3.2 6.4 0.00 0.08 0.08 75 1020.7
20190422120715 11 337 4.8 6.4 0.00 0.08 0.08 75 1020.6
20190422120615 11 337 3.2 4.8 0.00 0.08 0.08 74 1020.6
20190422120516 11 337 3.2 4.8 0.00 0.08 0.08 74 1020.7
20190422120415 11 337 1.6 3.2 0.00 0.08 0.08 74 1020.6
20190422120315 11 337 1.6 4.8 0.00 0.08 0.08 75 1020.6
20190422120215 11 337 1.6 4.8 0.00 0.08 0.08 75 1020.7
20190422120116 11 0 3.2 4.8 0.00 0.08 0.08 75 1020.7
20190422120015 11 337 3.2 6.4 0.00 0.08 0.08 74 1020.6
20190422115916 11 337 1.6 3.2 0.00 0.08 0.08 74 1020.6
20190422115815 11 0 3.2 8.0 0.00 0.08 0.08 74 1020.6
20190422115715 11 0.0 3.2 0.00 0.08 0.08 74 1020.7
20190422115615 11 22 3.2 6.4 0.00 0.08 0.08 74 1020.6
20190422115515 11 337 4.8 9.7 0.00 0.08 0.08 74 1020.7
20190422115415 11 337 1.6 4.8 0.00 0.08 0.08 74 1020.6
20190422115315 11 337 3.2 4.8 0.00 0.08 0.08 74 1020.6
20190422115216 11 337 1.6 3.2 0.00 0.08 0.08 74 1020.6
20190422115115 11 337 3.2 4.8 0.00 0.08 0.08 74 1020.6
20190422115015 11 337 1.6 3.2 0.00 0.08 0.08 74 1020.6
20190422114916 11 337 3.2 4.8 0.00 0.08 0.08 74 1020.6
20190422114815 11 337 3.2 6.4 0.00 0.08 0.08 74 1020.6
20190422114715 11 0 3.2 6.4 0.00 0.08 0.08 74 1020.6
20190422114615 11 0 1.6 3.2 0.00 0.08 0.08 74 1020.6
20190422114516 11 0.0 3.2 0.00 0.08 0.08 73 1020.6
20190422114415 11 337 1.6 3.2 0.00 0.08 0.08 73 1020.6
20190422114316 11 337 1.6 4.8 0.00 0.08 0.08 74 1020.5
20190422114215 11 0.0 1.6 0.00 0.08 0.08 74 1020.5
20190422114116 11 0.0 3.2 0.00 0.08 0.08 74 1020.6
20190422114015 11 0.0 1.6 0.00 0.08 0.08 74 1020.5
20190422113915 11 337 1.6 3.2 0.00 0.08 0.08 74 1020.5
20190422113815 11 337 1.6 3.2 0.00 0.08 0.08 74 1020.5
20190422113715 11 0 1.6 4.8 0.00 0.08 0.08 74 1020.5
20190422113615 11 0 1.6 4.8 0.00 0.08 0.08 74 1020.5
20190422113515 11 22 1.6 4.8 0.00 0.08 0.08 74 1020.5
20190422113416 11 0.0 1.6 0.00 0.08 0.08 74 1020.5
20190422113316 11 22 1.6 3.2 0.00 0.08 0.08 74 1020.5
20190422113215 11 0.0 1.6 0.00 0.08 0.08 74 1020.5
20190422113115 11 22 1.6 3.2 0.00 0.08 0.08 74 1020.5
20190422113016 11 0.0 3.2 0.00 0.08 0.08 74 1020.5
20190422112915 11 0.0 1.6 0.00 0.08 0.08 73 1020.5
20190422112815 11 0.0 1.6 0.00 0.08 0.08 73 1020.5
20190422112715 11 0.0 1.6 0.00 0.08 0.08 73 1020.4
20190422112615 11 0.0 3.2 0.00 0.08 0.08 73 1020.5
20190422112515 11 0.0 1.6 0.00 0.08 0.08 73 1020.4
20190422112415 11 0.0 1.6 0.00 0.08 0.08 72 1020.4
20190422112315 11 337 1.6 3.2 0.00 0.08 0.08 72 1020.4
20190422112215 11 0.0 1.6 0.00 0.08 0.08 73 1020.4
20190422112115 11 337 1.6 3.2 0.00 0.08 0.08 72 1020.4
20190422112015 11 337 1.6 3.2 0.00 0.08 0.08 72 1020.3
20190422111915 11 292 1.6 4.8 0.00 0.08 0.08 72 1020.3
20190422111815 11 292 1.6 3.2 0.00 0.08 0.08 72 1020.3
20190422111715 11 292 1.6 3.2 0.00 0.08 0.08 72 1020.3
20190422111616 11 247 1.6 4.8 0.00 0.08 0.08 71 1020.3
20190422111515 11 0.0 1.6 0.00 0.08 0.08 71 1020.4
20190422111415 11 0.0 1.6 0.00 0.08 0.08 71 1020.4
20190422111315 11 0.0 1.6 0.00 0.08 0.08 71 1020.4
20190422111215 11 0.0 1.6 0.00 0.08 0.08 71 1020.4
20190422111115 11 0.0 1.6 0.00 0.08 0.08 71 1020.3
20190422111015 11 247 1.6 3.2 0.00 0.08 0.08 71 1020.3
20190422110915 11 247 1.6 3.2 0.00 0.08 0.08 71 1020.4
20190422110815 11 247 1.6 3.2 0.00 0.08 0.08 71 1020.4
20190422110715 11 247 1.6 3.2 0.00 0.08 0.08 71 1020.3
20190422110615 11 247 1.6 3.2 0.00 0.08 0.08 71 1020.3
20190422110515 11 0.0 1.6 0.00 0.08 0.08 70 1020.2
20190422110415 11 0.0 0.0 0.00 0.08 0.08 70 1020.2
20190422110315 11 0.0 0.0 0.00 0.08 0.08 70 1020.2
20190422110215 11 0.0 0.0 0.00 0.08 0.08 70 1020.1
20190422110115 11 0.0 0.0 0.00 0.08 0.08 70 1020.2
20190422110015 11 0.0 0.0 0.00 0.08 0.08 70 1020.1
20190422105915 11 0.0 1.6 0.00 0.08 0.08 70 1020.1
20190422105815 11 0.0 0.0 0.00 0.08 0.08 70 1020.1
20190422105715 11 0.0 0.0 0.00 0.08 0.08 70 1020.1
20190422105615 11 0.0 0.0 0.00 0.08 0.08 70 1020.0
20190422105516 11 0.0 0.0 0.00 0.08 0.08 70 1020.1
20190422105415 11 0.0 0.0 0.00 0.08 0.08 70 1020.0
20190422105315 11 0.0 1.6 0.00 0.08 0.08 70 1020.1
20190422105215 11 0.0 1.6 0.00 0.08 0.08 70 1020.1
20190422105115 11 0.0 1.6 0.00 0.08 0.08 70 1020.0
20190422105015 11 247 1.6 3.2 0.00 0.08 0.08 70 1020.0
20190422104915 11 247 1.6 3.2 0.00 0.08 0.08 70 1020.0
20190422104815 11 0.0 3.2 0.00 0.08 0.08 70 1020.0
20190422104715 11 0.0 1.6 0.00 0.08 0.08 70 1020.0
20190422104615 11 0.0 1.6 0.00 0.08 0.08 69 1019.9
20190422104515 11 0.0 1.6 0.00 0.08 0.08 69 1019.9
20190422104415 11 0.0 1.6 0.00 0.08 0.08 69 1019.8
20190422104315 11 0.0 1.6 0.00 0.08 0.08 69 1019.8
20190422104215 11 0.0 1.6 0.00 0.08 0.08 69 1019.8
20190422104115 11 247 1.6 1.6 0.00 0.08 0.08 69 1019.8
20190422104015 11 247 1.6 4.8 0.00 0.08 0.08 69 1019.8
20190422103915 11 247 4.8 8.0 0.00 0.08 0.08 69 1019.8
20190422103815 11 270 1.6 3.2 0.00 0.08 0.08 69 1019.8
20190422103715 11 270 1.6 3.2 0.00 0.08 0.08 69 1019.8
20190422103615 11 270 3.2 3.2 0.00 0.08 0.08 69 1019.8
20190422103515 12 270 1.6 3.2 0.00 0.08 0.08 69 1019.9
20190422103415 12 270 1.6 3.2 0.00 0.08 0.08 69 1019.8
20190422103315 12 270 1.6 3.2 0.00 0.08 0.08 68 1019.8
20190422103215 12 270 3.2 4.8 0.00 0.08 0.08 68 1019.8
20190422103115 12 270 3.2 4.8 0.00 0.08 0.08 68 1019.8
20190422103015 12 270 3.2 4.8 0.00 0.08 0.08 68 1019.8
20190422102916 12 22 1.6 3.2 0.00 0.08 0.08 68 1019.8
20190422102815 12 22 1.6 3.2 0.00 0.08 0.08 68 1019.8
20190422102715 12 22 1.6 3.2 0.00 0.08 0.08 68 1019.8
20190422102615 12 0.0 3.2 0.00 0.08 0.08 68 1019.8
20190422102515 12 22 1.6 3.2 0.00 0.08 0.08 69 1019.7
20190422102416 12 22 1.6 4.8 0.00 0.08 0.08 68 1019.8
20190422102315 12 67 1.6 3.2 0.00 0.08 0.08 68 1019.7
20190422102217 12 45 3.2 6.4 0.00 0.08 0.08 68 1019.8
20190422102115 12 67 1.6 3.2 0.00 0.08 0.08 68 1019.7
20190422102015 12 0.0 1.6 0.00 0.08 0.08 68 1019.7
20190422101915 12 0.0 1.6 0.00 0.08 0.08 68 1019.7
20190422101815 12 0.0 1.6 0.00 0.08 0.08 68 1019.7
20190422101715 12 67 1.6 4.8 0.00 0.08 0.08 68 1019.7
20190422101615 12 270 1.6 3.2 0.00 0.08 0.08 68 1019.7
20190422101515 12 0.0 1.6 0.00 0.08 0.08 68 1019.7
20190422101415 12 0.0 0.0 0.00 0.08 0.08 68 1019.6
20190422101315 12 0.0 1.6 0.00 0.08 0.08 67 1019.6
20190422101215 12 0.0 1.6 0.00 0.08 0.08 67 1019.6
20190422101115 12 0.0 1.6 0.00 0.08 0.08 67 1019.5
20190422101015 12 0.0 1.6 0.00 0.08 0.08 67 1019.5
20190422100915 12 0.0 0.0 0.00 0.08 0.08 67 1019.5
20190422100815 12 0.0 0.0 0.00 0.08 0.08 67 1019.5
20190422100715 12 0.0 0.0 0.00 0.08 0.08 67 1019.4
20190422100615 12 0.0 0.0 0.00 0.08 0.08 67 1019.5
20190422100515 12 0.0 1.6 0.00 0.08 0.08 67 1019.4
20190422100415 12 0.0 0.0 0.00 0.08 0.08 67 1019.5
20190422100315 12 0.0 1.6 0.00 0.08 0.08 67 1019.5
20190422100215 12 0.0 0.0 0.00 0.08 0.08 67 1019.4
20190422100115 12 0.0 0.0 0.00 0.08 0.08 67 1019.4
20190422100015 12 0.0 0.0 0.00 0.08 0.08 67 1019.4
20190422095915 12 0.0 0.0 0.00 0.08 0.08 67 1019.4
20190422095815 12 0.0 1.6 0.00 0.08 0.08 67 1019.4
20190422095715 12 0.0 0.0 0.00 0.08 0.08 67 1019.5
20190422095615 12 0.0 0.0 0.00 0.08 0.08 67 1019.5
20190422095515 12 0.0 0.0 0.00 0.08 0.08 66 1019.5
20190422095415 12 0.0 1.6 0.00 0.08 0.08 66 1019.5
20190422095315 12 270 1.6 1.6 0.00 0.08 0.08 66 1019.5
20190422095215 12 270 1.6 3.2 0.00 0.08 0.08 66 1019.5
20190422095115 12 270 3.2 3.2 0.00 0.08 0.08 66 1019.5
20190422095015 12 270 3.2 4.8 0.00 0.08 0.08 66 1019.5
20190422094915 12 270 3.2 4.8 0.00 0.08 0.08 66 1019.5
20190422094815 12 270 3.2 4.8 0.00 0.08 0.08 66 1019.5
20190422094715 12 270 3.2 3.2 0.00 0.08 0.08 66 1019.5
20190422094615 12 270 1.6 3.2 0.00 0.08 0.08 66 1019.5
20190422094515 12 270 1.6 3.2 0.00 0.08 0.08 66 1019.5
20190422094415 12 292 1.6 3.2 0.00 0.08 0.08 66 1019.5
20190422094315 12 292 1.6 4.8 0.00 0.08 0.08 66 1019.5
20190422094215 12 270 1.6 3.2 0.00 0.08 0.08 66 1019.5
20190422094115 12 270 1.6 3.2 0.00 0.08 0.08 66 1019.6
20190422094015 12 270 1.6 3.2 0.00 0.08 0.08 66 1019.5
20190422093915 12 292 1.6 3.2 0.00 0.08 0.08 66 1019.6
20190422093815 12 292 1.6 3.2 0.00 0.08 0.08 66 1019.5
20190422093715 12 292 1.6 4.8 0.00 0.08 0.08 66 1019.6
20190422093615 12 292 1.6 3.2 0.00 0.08 0.08 66 1019.5
20190422093515 12 292 1.6 4.8 0.00 0.08 0.08 66 1019.6
20190422093415 12 315 1.6 3.2 0.00 0.08 0.08 66 1019.5
20190422093315 12 0.0 1.6 0.00 0.08 0.08 66 1019.5
20190422093215 12 315 1.6 3.2 0.00 0.08 0.08 66 1019.5
20190422093115 12 315 1.6 3.2 0.00 0.08 0.08 66 1019.5
20190422093015 12 315 1.6 1.6 0.00 0.08 0.08 65 1019.5
20190422092915 12 0.0 1.6 0.00 0.08 0.08 65 1019.5
20190422092815 12 315 1.6 1.6 0.00 0.08 0.08 65 1019.4
20190422092715 12 0.0 1.6 0.00 0.08 0.08 65 1019.4
20190422092617 12 0.0 1.6 0.00 0.08 0.08 65 1019.4
20190422092516 12 0.0 3.2 0.00 0.08 0.08 65 1019.4
20190422092416 12 315 1.6 3.2 0.00 0.08 0.08 65 1019.4
20190422092322 12 315 1.6 3.2 0.00 0.08 0.08 65 1019.4
20190422092219 12 315 3.2 6.4 0.00 0.08 0.08 65 1019.4
20190422092115 12 315 3.2 6.4 0.00 0.08 0.08 66 1019.4
20190422092015 12 315 1.6 3.2 0.00 0.08 0.08 66 1019.4
20190422091417 12 337 3.2 4.8 0.00 0.08 0.08 66 1019.3
20190422091315 12 292 3.2 4.8 0.00 0.08 0.08 66 1019.3
20190422091215 12 292 1.6 3.2 0.00 0.08 0.08 66 1019.2
20190422091115 12 292 1.6 3.2 0.00 0.08 0.08 66 1019.2
20190422091015 12 0.0 1.6 0.00 0.08 0.08 66 1019.2
20190422090915 12 0.0 1.6 0.00 0.08 0.08 66 1019.3
20190422090815 12 292 1.6 4.8 0.00 0.08 0.08 66 1019.3
20190422090715 12 270 1.6 3.2 0.00 0.08 0.08 65 1019.3
20190422090615 12 270 1.6 3.2 0.00 0.08 0.08 65 1019.3
20190422090515 12 270 1.6 3.2 0.00 0.08 0.08 65 1019.3
20190422090416 12 0.0 3.2 0.00 0.08 0.08 65 1019.3
20190422090315 12 270 1.6 3.2 0.00 0.08 0.08 65 1019.2
20190422090215 12 270 1.6 1.6 0.00 0.08 0.08 65 1019.3
20190422090115 12 270 1.6 4.8 0.00 0.08 0.08 65 1019.2
20190422090015 12 292 1.6 3.2 0.00 0.08 0.08 65 1019.2
20190422085915 12 0.0 1.6 0.00 0.08 0.08 65 1019.1
20190422085815 13 0.0 1.6 0.00 0.08 0.08 65 1019.2
20190422085715 13 292 1.6 4.8 0.00 0.08 0.08 65 1019.2
20190422085615 13 0.0 1.6 0.00 0.08 0.08 65 1019.1
20190422085515 13 0.0 1.6 0.00 0.08 0.08 65 1019.1
20190422085415 13 292 1.6 3.2 0.00 0.08 0.08 65 1019.1
20190422085315 13 292 1.6 3.2 0.00 0.08 0.08 65 1019.2
20190422085215 13 292 1.6 3.2 0.00 0.08 0.08 65 1019.1
20190422085115 13 292 1.6 3.2 0.00 0.08 0.08 65 1019.2
20190422085015 13 315 1.6 3.2 0.00 0.08 0.08 64 1019.1
20190422084915 13 315 1.6 4.8 0.00 0.08 0.08 64 1019.0
20190422084815 13 315 1.6 1.6 0.00 0.08 0.08 64 1019.0
20190422084715 13 0.0 1.6 0.00 0.08 0.08 64 1019.0
20190422084615 13 0.0 1.6 0.00 0.08 0.08 64 1019.0
20190422084515 13 0.0 0.0 0.00 0.08 0.08 64 1019.0
20190422084415 13 0.0 1.6 0.00 0.08 0.08 64 1019.0
20190422084315 13 0.0 1.6 0.00 0.08 0.08 64 1019.0
20190422084215 13 0.0 1.6 0.00 0.08 0.08 64 1018.9
20190422084115 13 0.0 1.6 0.00 0.08 0.08 64 1019.0
20190422084015 13 0.0 1.6 0.00 0.08 0.08 64 1019.0
20190422083915 13 0.0 3.2 0.00 0.08 0.08 63 1018.9
20190422083815 13 315 1.6 3.2 0.00 0.08 0.08 63 1018.9
20190422083715 13 315 1.6 4.8 0.00 0.08 0.08 63 1018.9
20190422083615 13 0.0 1.6 0.00 0.08 0.08 63 1018.8
20190422083515 13 0.0 0.0 0.00 0.08 0.08 62 1018.8
20190422083415 13 0.0 1.6 0.00 0.08 0.08 62 1018.8
20190422083315 13 0.0 1.6 0.00 0.08 0.08 62 1018.7
20190422083215 13 0.0 1.6 0.00 0.08 0.08 62 1018.8
20190422083115 13 0.0 0.0 0.00 0.08 0.08 62 1018.7
20190422083015 13 0.0 1.6 0.00 0.08 0.08 62 1018.7
20190422082915 13 0.0 1.6 0.00 0.08 0.08 62 1018.7
20190422082815 13 0.0 1.6 0.00 0.08 0.08 62 1018.7
20190422082715 13 315 1.6 3.2 0.00 0.08 0.08 62 1018.7
20190422082615 13 315 1.6 3.2 0.00 0.08 0.08 62 1018.6
20190422082515 13 315 1.6 1.6 0.00 0.08 0.08 62 1018.6
20190422082415 13 315 1.6 3.2 0.00 0.08 0.08 62 1018.6
20190422082315 13 315 1.6 4.8 0.00 0.08 0.08 62 1018.6
20190422082215 13 292 1.6 3.2 0.00 0.08 0.08 62 1018.6
20190422082115 14 292 1.6 1.6 0.00 0.08 0.08 62 1018.5
20190422082015 14 292 1.6 1.6 0.00 0.08 0.08 62 1018.5
20190422081915 14 292 1.6 3.2 0.00 0.08 0.08 61 1018.5
20190422081815 14 292 1.6 3.2 0.00 0.08 0.08 61 1018.5
20190422081715 14 292 1.6 3.2 0.00 0.08 0.08 61 1018.4
20190422081615 14 292 1.6 1.6 0.00 0.08 0.08 61 1018.4
20190422081515 14 292 1.6 3.2 0.00 0.08 0.08 61 1018.4
20190422081415 14 292 1.6 3.2 0.00 0.08 0.08 61 1018.3
20190422081315 14 292 1.6 3.2 0.00 0.08 0.08 61 1018.4
20190422081215 14 292 1.6 3.2 0.00 0.08 0.08 61 1018.3
20190422081115 14 292 1.6 3.2 0.00 0.08 0.08 61 1018.3
20190422081015 14 292 1.6 4.8 0.00 0.08 0.08 61 1018.3
20190422080915 14 0.0 1.6 0.00 0.08 0.08 61 1018.3
20190422080817 14 0.0 0.0 0.00 0.08 0.08 60 1018.2
20190422080717 14 0.0 1.6 0.00 0.08 0.08 60 1018.2
20190422080616 14 292 1.6 3.2 0.00 0.08 0.08 60 1018.2
20190422080518 14 337 1.6 4.8 0.00 0.08 0.08 60 1018.2
20190422080415 14 337 1.6 4.8 0.00 0.08 0.08 60 1018.2
20190422080315 14 337 3.2 4.8 0.00 0.08 0.08 60 1018.2
20190422080215 14 337 1.6 4.8 0.00 0.08 0.08 60 1018.2
20190422080115 15 0.0 1.6 0.00 0.08 0.08 60 1018.1
20190422080015 15 337 3.2 4.8 0.00 0.08 0.08 60 1018.1
20190422075915 15 315 1.6 1.6 0.00 0.08 0.08 60 1018.1
20190422075815 15 0.0 1.6 0.00 0.08 0.08 60 1018.1
20190422075715 15 337 1.6 3.2 0.00 0.08 0.08 60 1018.1
20190422075615 15 0.0 1.6 0.00 0.08 0.08 59 1018.1
20190422075515 15 0.0 1.6 0.00 0.08 0.08 59 1018.1
20190422075416 15 0.0 1.6 0.00 0.08 0.08 59 1018.0
20190422075315 15 292 1.6 4.8 0.00 0.08 0.08 59 1018.0
20190422075215 15 337 1.6 3.2 0.00 0.08 0.08 59 1018.0
20190422075115 15 315 3.2 6.4 0.00 0.08 0.08 59 1018.0
20190422075015 15 337 4.8 8.0 0.00 0.08 0.08 59 1018.0
20190422074915 15 337 3.2 6.4 0.00 0.08 0.08 59 1018.0
20190422074815 15 315 1.6 3.2 0.00 0.08 0.08 59 1018.0
20190422074715 15 0.0 1.6 0.00 0.08 0.08 59 1017.9
20190422074615 15 337 1.6 4.8 0.00 0.08 0.08 59 1017.9
20190422074515 15 337 1.6 3.2 0.00 0.08 0.08 58 1017.9
20190422074415 15 337 3.2 4.8 0.00 0.08 0.08 59 1017.9
20190422074315 15 337 4.8 11.3 0.00 0.08 0.08 59 1017.8
20190422074215 15 0 3.2 6.4 0.00 0.08 0.08 59 1017.8
20190422074115 15 292 3.2 6.4 0.00 0.08 0.08 58 1017.8
20190422074015 15 337 1.6 6.4 0.00 0.08 0.08 58 1017.8
20190422073915 15 0.0 1.6 0.00 0.08 0.08 58 1017.7
20190422073815 15 0.0 1.6 0.00 0.08 0.08 58 1017.6
20190422073715 15 337 3.2 6.4 0.00 0.08 0.08 58 1017.6
20190422073615 15 337 1.6 3.2 0.00 0.08 0.08 58 1017.6
20190422073515 15 0.0 1.6 0.00 0.08 0.08 58 1017.6
20190422073415 15 337 1.6 6.4 0.00 0.08 0.08 58 1017.6
20190422073315 15 0.0 1.6 0.00 0.08 0.08 58 1017.5
20190422073215 15 337 1.6 3.2 0.00 0.08 0.08 58 1017.6
20190422073115 15 337 1.6 4.8 0.00 0.08 0.08 58 1017.6
20190422073015 15 337 1.6 4.8 0.00 0.08 0.08 58 1017.5
20190422072915 15 337 3.2 6.4 0.00 0.08 0.08 57 1017.5
20190422072815 15 337 3.2 8.0 0.00 0.08 0.08 58 1017.5
20190422072714 15 337 3.2 3.2 0.00 0.08 0.08 58 1017.5
20190422072615 15 337 3.2 4.8 0.00 0.08 0.08 58 1017.5
20190422072515 15 337 1.6 3.2 0.00 0.08 0.08 58 1017.5
20190422072415 15 337 1.6 3.2 0.00 0.08 0.08 58 1017.5
20190422072315 15 337 1.6 4.8 0.00 0.08 0.08 58 1017.4
20190422072215 15 337 1.6 3.2 0.00 0.08 0.08 58 1017.4
20190422072115 15 315 1.6 3.2 0.00 0.08 0.08 57 1017.4
20190422072015 15 337 4.8 9.7 0.00 0.08 0.08 57 1017.4
20190422071914 15 337 3.2 6.4 0.00 0.08 0.08 58 1017.4
20190422071815 15 337 4.8 9.7 0.00 0.08 0.08 58 1017.4
20190422071715 15 22 1.6 4.8 0.00 0.08 0.08 58 1017.4
20190422071615 15 22 1.6 6.4 0.00 0.08 0.08 57 1017.3
20190422071515 15 337 1.6 3.2 0.00 0.08 0.08 57 1017.3
20190422071415 15 337 3.2 8.0 0.00 0.08 0.08 57 1017.4
20190422071315 15 0 4.8 9.7 0.00 0.08 0.08 57 1017.3
20190422071215 15 337 3.2 6.4 0.00 0.08 0.08 57 1017.3
20190422071115 15 22 1.6 3.2 0.00 0.08 0.08 57 1017.3
20190422071015 15 337 3.2 8.0 0.00 0.08 0.08 57 1017.3
20190422070915 15 337 1.6 4.8 0.00 0.08 0.08 56 1017.3
20190422070815 16 337 3.2 8.0 0.00 0.08 0.08 57 1017.3
20190422070715 16 337 1.6 4.8 0.00 0.08 0.08 56 1017.3
20190422070615 16 337 3.2 4.8 0.00 0.08 0.08 56 1017.3
20190422070515 16 337 3.2 6.4 0.00 0.08 0.08 56 1017.2
20190422070415 16 315 3.2 6.4 0.00 0.08 0.08 56 1017.2
20190422070315 16 0 1.6 6.4 0.00 0.08 0.08 56 1017.2
20190422070215 16 337 3.2 6.4 0.00 0.08 0.08 56 1017.2
20190422070115 16 337 1.6 4.8 0.00 0.08 0.08 56 1017.1
20190422070015 16 315 4.8 6.4 0.00 0.08 0.08 55 1017.1
20190422065915 16 45 4.8 11.3 0.00 0.08 0.08 55 1017.1
20190422065815 16 337 3.2 6.4 0.00 0.08 0.08 55 1017.1
20190422065715 16 45 3.2 6.4 0.00 0.08 0.08 55 1017.1
20190422065615 16 315 6.4 11.3 0.00 0.08 0.08 54 1017.0
20190422065515 16 315 6.4 11.3 0.00 0.08 0.08 55 1017.1
20190422065415 16 315 4.8 6.4 0.00 0.08 0.08 55 1017.1
20190422065315 16 67 4.8 6.4 0.00 0.08 0.08 55 1017.1
20190422065214 16 22 3.2 6.4 0.00 0.08 0.08 55 1017.1
20190422065115 16 337 3.2 9.7 0.00 0.08 0.08 55 1017.1
20190422065014 16 337 1.6 6.4 0.00 0.08 0.08 54 1017.1
20190422064915 16 337 3.2 6.4 0.00 0.08 0.08 54 1017.1
20190422064815 16 0.0 1.6 0.00 0.08 0.08 55 1017.1
20190422064715 16 22 3.2 8.0 0.00 0.08 0.08 55 1017.1
20190422064615 16 0 1.6 3.2 0.00 0.08 0.08 54 1017.1
20190422064515 16 337 1.6 3.2 0.00 0.08 0.08 54 1017.0
20190422064415 16 337 4.8 9.7 0.00 0.08 0.08 54 1017.0
20190422064314 16 337 3.2 4.8 0.00 0.08 0.08 54 1017.0
20190422064215 16 315 4.8 12.9 0.00 0.08 0.08 53 1017.1
20190422064115 16 337 3.2 9.7 0.00 0.08 0.08 53 1017.0
20190422064015 16 337 4.8 6.4 0.00 0.08 0.08 53 1017.1
20190422063915 16 337 4.8 8.0 0.00 0.08 0.08 53 1017.1
20190422063815 16 337 3.2 8.0 0.00 0.08 0.08 54 1017.1
20190422063715 16 337 1.6 6.4 0.00 0.08 0.08 53 1017.1
20190422063615 16 315 3.2 6.4 0.00 0.08 0.08 53 1017.1
20190422063515 16 315 3.2 6.4 0.00 0.08 0.08 53 1017.1
20190422063415 16 315 4.8 9.7 0.00 0.08 0.08 53 1017.0
20190422063315 17 0 3.2 8.0 0.00 0.08 0.08 53 1017.1
20190422063214 17 337 6.4 9.7 0.00 0.08 0.08 52 1017.1
20190422063115 17 337 4.8 9.7 0.00 0.08 0.08 52 1017.1
20190422063015 17 337 4.8 9.7 0.00 0.08 0.08 52 1017.1
20190422062919 17 337 3.2 8.0 0.00 0.08 0.08 52 1017.1
20190422062912 17 315 4.8 9.7 0.00 0.08 0.08 52 1017.1
20190422062905 17 315 4.8 11.3 0.00 0.08 0.08 52 1017.0
20190422062826 17 337 4.8 11.3 0.00 0.08 0.08 52 1017.0
20190422062515 17 337 6.4 12.9 0.00 0.08 0.08 51 1017.0
20190422062414 17 337 6.4 11.3 0.00 0.08 0.08 51 1017.0
20190422062315 17 0 4.8 9.7 0.00 0.08 0.08 51 1017.0
20190422062215 17 315 8.0 17.7 0.00 0.08 0.08 52 1017.0
20190422062115 17 315 4.8 8.0 0.00 0.08 0.08 51 1017.0
20190422062015 17 337 6.4 8.0 0.00 0.08 0.08 51 1017.1
20190422061914 17 270 4.8 11.3 0.00 0.08 0.08 51 1017.0
20190422061814 17 315 4.8 8.0 0.00 0.08 0.08 51 1017.1
20190422061715 17 337 6.4 14.5 0.00 0.08 0.08 51 1017.1
20190422061615 17 337 6.4 12.9 0.00 0.08 0.08 51 1017.1
20190422061515 17 315 4.8 6.4 0.00 0.08 0.08 51 1017.1
20190422061315 17 315 6.4 11.3 0.00 0.08 0.08 51 1017.1
20190422061215 17 315 6.4 9.7 0.00 0.08 0.08 51 1017.2
20190422061114 17 315 6.4 9.7 0.00 0.08 0.08 51 1017.1
20190422061015 17 337 6.4 12.9 0.00 0.08 0.08 50 1017.1
20190422060915 17 337 8.0 16.1 0.00 0.08 0.08 51 1017.1
20190422060815 17 337 4.8 9.7 0.00 0.08 0.08 50 1017.1
20190422060715 17 337 6.4 9.7 0.00 0.08 0.08 50 1017.1
20190422060615 17 337 4.8 9.7 0.00 0.08 0.08 50 1017.1
20190422060514 17 315 6.4 9.7 0.00 0.08 0.08 50 1017.1
20190422060415 17 315 8.0 16.1 0.00 0.08 0.08 50 1017.1
20190422060314 17 315 8.0 12.9 0.00 0.08 0.08 50 1017.0
20190422060215 17 315 8.0 14.5 0.00 0.08 0.08 50 1017.0
20190422060115 17 337 6.4 11.3 0.00 0.08 0.08 50 1017.1
20190422060015 17 315 6.4 8.0 0.00 0.08 0.08 50 1017.1
20190422055915 17 0 3.2 11.3 0.00 0.08 0.08 51 1017.1
20190422055814 17 315 4.8 8.0 0.00 0.08 0.08 51 1017.1
20190422055715 17 337 8.0 12.9 0.00 0.08 0.08 50 1017.1
20190422055615 17 0 4.8 9.7 0.00 0.08 0.08 50 1017.1
20190422055515 17 225 4.8 8.0 0.00 0.08 0.08 50 1017.1
20190422055415 17 337 6.4 11.3 0.00 0.08 0.08 51 1017.0
20190422055315 17 315 3.2 6.4 0.00 0.08 0.08 50 1017.0
20190422055214 17 45 6.4 14.5 0.00 0.08 0.08 50 1017.0
20190422055114 17 337 4.8 9.7 0.00 0.08 0.08 51 1016.9
20190422055015 17 337 6.4 11.3 0.00 0.08 0.08 50 1016.9
20190422054915 17 45 4.8 11.3 0.00 0.08 0.08 50 1016.9
20190422054815 17 337 4.8 9.7 0.00 0.08 0.08 50 1016.9
20190422054714 17 0 4.8 8.0 0.00 0.08 0.08 50 1016.9
20190422054614 17 45 6.4 12.9 0.00 0.08 0.08 50 1016.9
20190422054514 17 337 8.0 14.5 0.00 0.08 0.08 50 1016.9
20190422054414 17 45 3.2 6.4 0.00 0.08 0.08 50 1016.8
20190422054315 18 337 3.2 11.3 0.00 0.08 0.08 50 1016.8
20190422054214 18 45 4.8 11.3 0.00 0.08 0.08 49 1016.8
20190422054114 18 0 6.4 12.9 0.00 0.08 0.08 49 1016.8
20190422054015 18 315 6.4 12.9 0.00 0.08 0.08 49 1016.7
20190422053915 18 0 8.0 14.5 0.00 0.08 0.08 49 1016.7
20190422053814 18 315 8.0 16.1 0.00 0.08 0.08 49 1016.7
20190422053714 18 0 6.4 12.9 0.00 0.08 0.08 50 1016.7
20190422053615 18 337 4.8 9.7 0.00 0.08 0.08 49 1016.6
20190422053515 18 315 6.4 16.1 0.00 0.08 0.08 50 1016.6
20190422053415 18 22 6.4 9.7 0.00 0.08 0.08 50 1016.6
20190422053314 18 337 4.8 9.7 0.00 0.08 0.08 49 1016.6
20190422053215 18 0 4.8 8.0 0.00 0.08 0.08 49 1016.5
20190422053115 18 337 4.8 6.4 0.00 0.08 0.08 49 1016.5
20190422053015 18 315 6.4 11.3 0.00 0.08 0.08 48 1016.6
20190422052914 18 0 6.4 14.5 0.00 0.08 0.08 49 1016.6
20190422052815 18 337 4.8 12.9 0.00 0.08 0.08 49 1016.5
20190422052714 18 337 4.8 11.3 0.00 0.08 0.08 49 1016.5
20190422052615 18 337 8.0 14.5 0.00 0.08 0.08 49 1016.4
20190422052515 18 0 4.8 9.7 0.00 0.08 0.08 49 1016.5
20190422052416 18 22 8.0 12.9 0.00 0.08 0.08 49 1016.6
20190422052314 18 22 4.8 14.5 0.00 0.08 0.08 49 1016.5
20190422052215 18 0 4.8 8.0 0.00 0.08 0.08 49 1016.4
20190422052115 18 315 6.4 9.7 0.00 0.08 0.08 49 1016.5
20190422052014 18 45 6.4 11.3 0.00 0.08 0.08 49 1016.4
20190422051914 18 45 3.2 4.8 0.00 0.08 0.08 49 1016.4
20190422051815 18 67 3.2 6.4 0.00 0.08 0.08 49 1016.4
20190422051715 18 22 3.2 4.8 0.00 0.08 0.08 49 1016.5
20190422051614 18 45 6.4 9.7 0.00 0.08 0.08 48 1016.4
20190422051515 18 0 3.2 9.7 0.00 0.08 0.08 49 1016.4
20190422051414 18 337 4.8 8.0 0.00 0.08 0.08 48 1016.4
20190422051314 18 45 4.8 8.0 0.00 0.08 0.08 48 1016.5
20190422051214 18 22 6.4 9.7 0.00 0.08 0.08 47 1016.5
20190422051114 18 0 8.0 11.3 0.00 0.08 0.08 47 1016.5
20190422051015 18 45 4.8 8.0 0.00 0.08 0.08 47 1016.5
20190422050915 18 22 4.8 9.7 0.00 0.08 0.08 48 1016.5
20190422050814 18 22 3.2 6.4 0.00 0.08 0.08 48 1016.4
20190422050714 18 337 3.2 4.8 0.00 0.08 0.08 48 1016.4
20190422050614 18 22 4.8 12.9 0.00 0.08 0.08 48 1016.5
20190422050514 18 22 6.4 11.3 0.00 0.08 0.08 48 1016.5
20190422050414 18 315 6.4 11.3 0.00 0.08 0.08 48 1016.5
20190422050315 18 337 9.7 14.5 0.00 0.08 0.08 47 1016.6
20190422050214 18 22 4.8 11.3 0.00 0.08 0.08 48 1016.6
20190422050114 18 22 4.8 11.3 0.00 0.08 0.08 48 1016.6
20190422050015 18 22 4.8 11.3 0.00 0.08 0.08 48 1016.6
20190422045915 18 45 6.4 11.3 0.00 0.08 0.08 48 1016.6
20190422045815 18 22 4.8 8.0 0.00 0.08 0.08 48 1016.7
20190422045715 18 22 4.8 8.0 0.00 0.08 0.08 48 1016.6
20190422045615 18 315 6.4 8.0 0.00 0.08 0.08 48 1016.7
20190422045515 18 67 3.2 6.4 0.00 0.08 0.08 48 1016.6
20190422045415 18 270 3.2 6.4 0.00 0.08 0.08 48 1016.6
20190422045314 18 45 4.8 8.0 0.00 0.08 0.08 49 1016.7
20190422045214 18 337 3.2 8.0 0.00 0.08 0.08 49 1016.5
20190422045115 18 0 6.4 12.9 0.00 0.08 0.08 49 1016.6
20190422045014 18 0 3.2 8.0 0.00 0.08 0.08 48 1016.4
20190422044914 18 337 6.4 9.7 0.00 0.08 0.08 49 1016.4
20190422044814 18 315 4.8 11.3 0.00 0.08 0.08 49 1016.4
20190422044714 18 337 3.2 9.7 0.00 0.08 0.08 49 1016.4
20190422044615 17 315 4.8 9.7 0.00 0.08 0.08 49 1016.4
20190422044514 17 22 4.8 9.7 0.00 0.08 0.08 49 1016.3
20190422044415 17 112 1.6 4.8 0.00 0.08 0.08 49 1016.3
20190422044314 17 0 3.2 4.8 0.00 0.08 0.08 49 1016.4
20190422044214 17 337 6.4 8.0 0.00 0.08 0.08 50 1016.3
20190422044114 17 337 3.2 8.0 0.00 0.08 0.08 50 1016.4
20190422044014 17 247 1.6 9.7 0.00 0.08 0.08 49 1016.3
20190422043914 17 315 3.2 9.7 0.00 0.08 0.08 49 1016.3
20190422043815 17 22 6.4 12.9 0.00 0.08 0.08 51 1016.4
20190422043715 17 0.0 3.2 0.00 0.08 0.08 50 1016.3
20190422043615 17 337 3.2 8.0 0.00 0.08 0.08 50 1016.3
20190422043514 17 315 3.2 8.0 0.00 0.08 0.08 50 1016.2
20190422043414 17 315 4.8 6.4 0.00 0.08 0.08 50 1016.3
20190422043314 17 292 4.8 9.7 0.00 0.08 0.08 49 1016.2
20190422043215 17 337 8.0 17.7 0.00 0.08 0.08 49 1016.2
20190422043114 17 337 6.4 8.0 0.00 0.08 0.08 49 1016.1
20190422043015 17 315 9.7 14.5 0.00 0.08 0.08 49 1016.1
20190422042914 17 315 8.0 16.1 0.00 0.08 0.08 49 1016.1
20190422042815 17 0 6.4 12.9 0.00 0.08 0.08 49 1016.0
20190422042714 17 337 8.0 16.1 0.00 0.08 0.08 49 1016.0
20190422042615 17 22 8.0 19.3 0.00 0.08 0.08 49 1016.0
20190422042514 17 0 6.4 12.9 0.00 0.08 0.08 50 1015.9
20190422042414 17 22 8.0 17.7 0.00 0.08 0.08 51 1016.0
20190422042314 17 0 4.8 9.7 0.00 0.08 0.08 50 1016.0
20190422042214 17 337 3.2 6.4 0.00 0.08 0.08 51 1016.0
20190422042114 17 67 4.8 8.0 0.00 0.08 0.08 51 1016.1
20190422042014 17 337 6.4 19.3 0.00 0.08 0.08 52 1016.1
20190422041914 17 45 1.6 3.2 0.00 0.08 0.08 52 1016.0
20190422041814 17 337 4.8 9.7 0.00 0.08 0.08 52 1016.0
20190422041715 17 337 1.6 6.4 0.00 0.08 0.08 53 1016.1
20190422041614 17 0.0 1.6 0.00 0.08 0.08 51 1016.1
20190422041514 17 337 1.6 3.2 0.00 0.08 0.08 52 1016.1
20190422041415 17 0 1.6 3.2 0.00 0.08 0.08 51 1016.2
20190422041314 17 270 3.2 6.4 0.00 0.08 0.08 51 1016.1
20190422041214 17 292 3.2 6.4 0.00 0.08 0.08 52 1016.1
20190422041114 17 337 3.2 8.0 0.00 0.08 0.08 52 1016.1
20190422041015 17 315 4.8 11.3 0.00 0.08 0.08 51 1016.1
20190422040914 17 225 4.8 8.0 0.00 0.08 0.08 53 1016.1
20190422040814 17 225 1.6 3.2 0.00 0.08 0.08 53 1016.1
20190422040714 16 0 3.2 6.4 0.00 0.08 0.08 53 1016.1
20190422040614 16 292 3.2 4.8 0.00 0.08 0.08 53 1016.1
20190422040514 16 315 1.6 4.8 0.00 0.08 0.08 53 1016.0
20190422040414 16 337 3.2 4.8 0.00 0.08 0.08 52 1016.0
20190422040315 16 337 4.8 8.0 0.00 0.08 0.08 52 1016.0
20190422040214 16 315 4.8 8.0 0.00 0.08 0.08 52 1016.0
20190422040114 16 337 4.8 9.7 0.00 0.08 0.08 51 1016.0
20190422040014 16 337 6.4 12.9 0.00 0.08 0.08 51 1016.0
20190422035915 16 0 4.8 12.9 0.00 0.08 0.08 51 1016.1
20190422035814 16 270 6.4 8.0 0.00 0.08 0.08 51 1016.0
20190422035715 16 247 6.4 11.3 0.00 0.08 0.08 51 1016.1
20190422035614 17 337 6.4 11.3 0.00 0.08 0.08 51 1016.1
20190422035514 17 315 6.4 11.3 0.00 0.08 0.08 51 1016.1
20190422035414 17 337 8.0 14.5 0.00 0.08 0.08 50 1016.1
20190422035314 17 315 4.8 9.7 0.00 0.08 0.08 50 1016.1
20190422035214 17 315 6.4 16.1 0.00 0.08 0.08 50 1016.1
20190422035114 17 315 11.3 16.1 0.00 0.08 0.08 51 1016.0
20190422035014 17 315 6.4 11.3 0.00 0.08 0.08 50 1016.0
20190422034914 17 270 6.4 9.7 0.00 0.08 0.08 50 1016.0
20190422034814 17 315 9.7 16.1 0.00 0.08 0.08 50 1016.1
20190422034715 17 0 3.2 4.8 0.00 0.08 0.08 51 1016.0
20190422034614 17 315 3.2 8.0 0.00 0.08 0.08 50 1016.0
20190422034515 17 337 4.8 8.0 0.00 0.08 0.08 49 1016.0
20190422034414 17 337 8.0 14.5 0.00 0.08 0.08 49 1016.0
20190422034315 17 315 9.7 16.1 0.00 0.08 0.08 49 1015.9
20190422034214 17 337 9.7 19.3 0.00 0.08 0.08 49 1015.9
20190422034114 17 270 12.9 19.3 0.00 0.08 0.08 50 1015.9
20190422034014 17 315 6.4 9.7 0.00 0.08 0.08 51 1015.8
20190422033914 17 337 6.4 14.5 0.00 0.08 0.08 52 1016.0
20190422033814 17 22 4.8 8.0 0.00 0.08 0.08 52 1016.0
20190422033714 17 22 3.2 8.0 0.00 0.08 0.08 52 1016.1
20190422033617 17 337 4.8 9.7 0.00 0.08 0.08 52 1016.1
20190422033514 17 315 6.4 11.3 0.00 0.08 0.08 52 1016.1
20190422033414 17 315 8.0 12.9 0.00 0.08 0.08 52 1016.1
20190422033315 17 337 6.4 9.7 0.00 0.08 0.08 52 1016.2
20190422033214 17 337 9.7 16.1 0.00 0.08 0.08 52 1016.1
20190422033114 17 315 8.0 17.7 0.00 0.08 0.08 52 1016.2
20190422033014 17 22 8.0 11.3 0.00 0.08 0.08 52 1016.1
20190422032914 17 22 6.4 12.9 0.00 0.08 0.08 52 1016.2
20190422032814 17 22 8.0 12.9 0.00 0.08 0.08 52 1016.2
20190422032714 17 45 4.8 8.0 0.00 0.08 0.08 52 1016.2
20190422032615 17 337 6.4 11.3 0.00 0.08 0.08 52 1016.2
20190422032514 17 0 6.4 11.3 0.00 0.08 0.08 52 1016.2
20190422032414 17 337 9.7 16.1 0.00 0.08 0.08 53 1016.1
20190422032314 17 315 6.4 8.0 0.00 0.08 0.08 53 1016.1
20190422032214 17 22 4.8 8.0 0.00 0.08 0.08 53 1016.1
20190422032114 17 315 8.0 14.5 0.00 0.08 0.08 53 1016.1
20190422032014 17 22 6.4 8.0 0.00 0.08 0.08 53 1016.1
20190422031914 17 337 6.4 9.7 0.00 0.08 0.08 53 1016.1
20190422031814 17 337 6.4 12.9 0.00 0.08 0.08 52 1016.1
20190422031714 17 315 6.4 12.9 0.00 0.08 0.08 53 1016.1
20190422031614 17 45 6.4 16.1 0.00 0.08 0.08 53 1016.0
20190422031514 16 0 8.0 16.1 0.00 0.08 0.08 53 1016.1
20190422031414 16 0 6.4 14.5 0.00 0.08 0.08 52 1016.1
20190422031314 16 337 9.7 17.7 0.00 0.08 0.08 52 1016.0
20190422031214 16 0 11.3 20.9 0.00 0.08 0.08 52 1016.0
20190422031114 16 0 9.7 17.7 0.00 0.08 0.08 53 1016.1
20190422031014 16 0 8.0 17.7 0.00 0.08 0.08 53 1016.1
20190422030914 16 315 8.0 14.5 0.00 0.08 0.08 53 1016.0
20190422030814 16 0 6.4 9.7 0.00 0.08 0.08 53 1016.1
20190422030714 17 0 4.8 8.0 0.00 0.08 0.08 53 1016.1
20190422030614 17 22 6.4 12.9 0.00 0.08 0.08 53 1016.1
20190422030515 17 45 6.4 16.1 0.00 0.08 0.08 52 1016.1
20190422030414 17 90 4.8 8.0 0.00 0.08 0.08 51 1016.1
20190422030314 17 337 11.3 17.7 0.00 0.08 0.08 51 1016.1
20190422030214 17 337 9.7 19.3 0.00 0.08 0.08 52 1016.0
20190422030116 17 0 4.8 9.7 0.00 0.08 0.08 53 1016.0
20190422030014 17 337 6.4 9.7 0.00 0.08 0.08 52 1016.0
20190422025914 17 45 3.2 6.4 0.00 0.08 0.08 53 1016.0
20190422025814 17 337 4.8 12.9 0.00 0.08 0.08 52 1016.0
20190422025714 17 337 8.0 12.9 0.00 0.08 0.08 53 1016.1
20190422025614 17 337 6.4 14.5 0.00 0.08 0.08 53 1016.0
20190422025514 17 45 4.8 11.3 0.00 0.08 0.08 53 1016.1
20190422025414 17 45 6.4 12.9 0.00 0.08 0.08 53 1016.1
20190422025314 17 45 8.0 20.9 0.00 0.08 0.08 54 1016.1
20190422025214 17 22 6.4 8.0 0.00 0.08 0.08 54 1015.9
20190422025114 17 337 6.4 11.3 0.00 0.08 0.08 53 1016.0
20190422025014 17 22 8.0 14.5 0.00 0.08 0.08 53 1016.0
20190422024914 17 0 6.4 11.3 0.00 0.08 0.08 53 1016.0
20190422024814 17 45 4.8 11.3 0.00 0.08 0.08 54 1016.1
20190422024714 17 22 9.7 20.9 0.00 0.08 0.08 52 1016.2
20190422024614 17 337 9.7 17.7 0.00 0.08 0.08 51 1016.1
20190422024514 17 337 9.7 14.5 0.00 0.08 0.08 52 1016.2
20190422024414 17 0 6.4 9.7 0.00 0.08 0.08 52 1016.1
20190422024314 17 315 6.4 9.7 0.00 0.08 0.08 52 1016.1
20190422024214 17 0 4.8 9.7 0.00 0.08 0.08 52 1016.1
20190422024114 17 315 8.0 11.3 0.00 0.08 0.08 53 1016.1
20190422024014 17 67 6.4 11.3 0.00 0.08 0.08 52 1016.1
20190422023914 17 315 6.4 12.9 0.00 0.08 0.08 52 1016.1
20190422023814 17 315 8.0 12.9 0.00 0.08 0.08 52 1016.1
20190422023714 17 315 8.0 16.1 0.00 0.08 0.08 52 1016.0
20190422023614 17 270 6.4 12.9 0.00 0.08 0.08 52 1016.0
20190422023514 17 0 4.8 9.7 0.00 0.08 0.08 52 1016.1
20190422023414 17 0 6.4 11.3 0.00 0.08 0.08 52 1016.0
20190422023314 17 0 11.3 22.5 0.00 0.08 0.08 52 1016.1
20190422023214 17 337 6.4 11.3 0.00 0.08 0.08 53 1016.0
20190422023114 17 22 8.0 14.5 0.00 0.08 0.08 52 1016.1
20190422023014 17 22 6.4 11.3 0.00 0.08 0.08 52 1016.0
20190422022914 17 315 6.4 12.9 0.00 0.08 0.08 52 1016.0
20190422022814 17 337 9.7 16.1 0.00 0.08 0.08 51 1016.0
20190422022714 17 337 9.7 12.9 0.00 0.08 0.08 51 1016.1
20190422022614 17 315 11.3 20.9 0.00 0.08 0.08 51 1016.1
20190422022514 17 337 6.4 11.3 0.00 0.08 0.08 52 1016.1
20190422022414 17 22 8.0 22.5 0.00 0.08 0.08 51 1016.1
20190422022314 17 337 9.7 22.5 0.00 0.08 0.08 51 1016.1
20190422022214 17 337 9.7 22.5 0.00 0.08 0.08 52 1016.2
20190422022114 17 337 8.0 14.5 0.00 0.08 0.08 51 1016.1
20190422022014 17 0 9.7 17.7 0.00 0.08 0.08 52 1016.1
20190422021914 17 0 8.0 12.9 0.00 0.08 0.08 53 1016.1
20190422021814 17 22 6.4 12.9 0.00 0.08 0.08 52 1016.1
20190422021714 17 0 6.4 12.9 0.00 0.08 0.08 53 1016.1
20190422021617 17 337 6.4 11.3 0.00 0.08 0.08 53 1016.1
20190422021514 17 22 9.7 14.5 0.00 0.08 0.08 54 1016.1
20190422021414 17 45 8.0 19.3 0.00 0.08 0.08 54 1016.1
20190422021314 17 45 8.0 11.3 0.00 0.08 0.08 54 1016.2
20190422021216 17 0 8.0 12.9 0.00 0.08 0.08 54 1016.2
20190422021116 17 22 9.7 16.1 0.00 0.08 0.08 53 1016.3
20190422021016 17 22 8.0 14.5 0.00 0.08 0.08 54 1016.3
20190422020916 16 0 6.4 12.9 0.00 0.08 0.08 54 1016.2
20190422020816 16 22 4.8 9.7 0.00 0.08 0.08 54 1016.3
20190422020716 16 292 1.6 4.8 0.00 0.08 0.08 53 1016.3
20190422020616 16 45 6.4 11.3 0.00 0.08 0.08 53 1016.4
20190422020516 16 0 8.0 12.9 0.00 0.08 0.08 53 1016.4
20190422020416 16 0 6.4 12.9 0.00 0.08 0.08 54 1016.4
20190422020314 16 0 6.4 12.9 0.00 0.08 0.08 53 1016.4
20190422020216 16 22 6.4 12.9 0.00 0.08 0.08 55 1016.4
20190422020116 16 22 3.2 4.8 0.00 0.08 0.08 55 1016.3
20190422020016 16 0 6.4 11.3 0.00 0.08 0.08 54 1016.3
20190422015916 16 315 9.7 17.7 0.00 0.08 0.08 53 1016.3
20190422015816 16 315 11.3 17.7 0.00 0.08 0.08 53 1016.4
20190422015716 16 337 6.4 11.3 0.00 0.08 0.08 53 1016.4
20190422015616 16 315 3.2 9.7 0.00 0.08 0.08 53 1016.4
20190422015516 16 292 4.8 9.7 0.00 0.08 0.08 53 1016.4
20190422015416 16 337 8.0 12.9 0.00 0.08 0.08 53 1016.4
20190422015316 16 315 9.7 17.7 0.00 0.08 0.08 53 1016.3
20190422015216 16 22 6.4 11.3 0.00 0.08 0.08 53 1016.4
20190422015116 16 45 6.4 11.3 0.00 0.08 0.08 54 1016.4
20190422015016 16 45 11.3 14.5 0.00 0.08 0.08 54 1016.4
20190422014914 16 337 6.4 8.0 0.00 0.08 0.08 53 1016.4
20190422014814 16 337 9.7 16.1 0.00 0.08 0.08 54 1016.4
20190422014714 16 22 4.8 12.9 0.00 0.08 0.08 54 1016.4
20190422014614 16 0 6.4 14.5 0.00 0.08 0.08 55 1016.4
20190422014514 16 270 3.2 8.0 0.00 0.08 0.08 54 1016.4
20190422014414 16 315 4.8 8.0 0.00 0.08 0.08 54 1016.4
20190422014314 16 315 6.4 9.7 0.00 0.08 0.08 54 1016.5
20190422014214 16 45 4.8 8.0 0.00 0.08 0.08 54 1016.4
20190422014114 16 22 6.4 11.3 0.00 0.08 0.08 53 1016.5
20190422014014 16 337 6.4 12.9 0.00 0.08 0.08 54 1016.4
20190422013916 16 0 4.8 8.0 0.00 0.08 0.08 54 1016.5
20190422013814 16 337 4.8 11.3 0.00 0.08 0.08 54 1016.4
20190422013716 16 337 8.0 20.9 0.00 0.08 0.08 54 1016.4
20190422013616 16 0 4.8 11.3 0.00 0.08 0.08 54 1016.3
20190422013516 16 0 8.0 14.5 0.00 0.08 0.08 54 1016.4
20190422013416 16 0 8.0 11.3 0.00 0.08 0.08 54 1016.4
20190422013316 16 292 6.4 11.3 0.00 0.08 0.08 54 1016.4
20190422013216 16 0 6.4 12.9 0.00 0.08 0.08 54 1016.4
20190422013116 16 315 9.7 16.1 0.00 0.08 0.08 54 1016.5
20190422013016 16 337 6.4 12.9 0.00 0.08 0.08 55 1016.4
20190422012916 16 45 6.4 11.3 0.00 0.08 0.08 54 1016.4
20190422012816 16 315 11.3 17.7 0.00 0.08 0.08 54 1016.4
20190422012716 16 337 4.8 11.3 0.00 0.08 0.08 54 1016.4
20190422012616 16 315 4.8 9.7 0.00 0.08 0.08 55 1016.4
20190422012516 16 315 9.7 16.1 0.00 0.08 0.08 55 1016.5
20190422012416 16 337 4.8 8.0 0.00 0.08 0.08 55 1016.5
20190422012316 16 337 8.0 14.5 0.00 0.08 0.08 55 1016.5
20190422012216 16 315 4.8 9.7 0.00 0.08 0.08 56 1016.5
20190422012116 16 315 6.4 11.3 0.00 0.08 0.08 56 1016.5
20190422012016 16 22 4.8 8.0 0.00 0.08 0.08 56 1016.5
20190422011916 16 315 8.0 11.3 0.00 0.08 0.08 56 1016.5
20190422011816 16 337 6.4 9.7 0.00 0.08 0.08 56 1016.6
20190422011716 16 315 4.8 9.7 0.00 0.08 0.08 57 1016.5
20190422011616 16 45 4.8 6.4 0.00 0.08 0.08 57 1016.5
20190422011516 16 22 4.8 8.0 0.00 0.08 0.08 57 1016.6
20190422011416 16 315 3.2 6.4 0.00 0.08 0.08 56 1016.4
20190422011316 16 225 3.2 8.0 0.00 0.08 0.08 56 1016.5
20190422011216 16 337 8.0 11.3 0.00 0.08 0.08 57 1016.5
20190422011116 16 45 3.2 6.4 0.00 0.08 0.08 57 1016.5
20190422011019 16 0 6.4 14.5 0.00 0.08 0.08 57 1016.5
20190422010916 16 337 3.2 6.4 0.00 0.08 0.08 57 1016.5
20190422010816 16 0 3.2 4.8 0.00 0.08 0.08 57 1016.5
20190422010716 16 0 4.8 9.7 0.00 0.08 0.08 56 1016.5
20190422010616 16 337 6.4 9.7 0.00 0.08 0.08 56 1016.6
20190422010516 16 337 6.4 11.3 0.00 0.08 0.08 56 1016.5
20190422010416 16 337 6.4 11.3 0.00 0.08 0.08 57 1016.5
20190422010316 16 315 4.8 8.0 0.00 0.08 0.08 56 1016.5
20190422010216 16 0 6.4 11.3 0.00 0.08 0.08 57 1016.5
20190422010116 16 22 4.8 8.0 0.00 0.08 0.08 57 1016.5
20190422010016 16 0 4.8 8.0 0.00 0.08 0.08 56 1016.6
20190422005916 16 0 4.8 9.7 0.00 0.08 0.08 57 1016.5
20190422005816 16 45 4.8 8.0 0.00 0.08 0.08 57 1016.5
20190422005736 16 0 6.4 9.7 0.00 0.08 0.08 58 1016.5
20190422005639 16 22 4.8 8.0 0.00 0.08 0.08 58 1016.5
20190422005516 16 22 4.8 8.0 0.00 0.08 0.08 58 1016.5
20190422005416 16 45 6.4 11.3 0.00 0.08 0.08 57 1016.6
20190422005316 16 247 4.8 9.7 0.00 0.08 0.08 57 1016.6
20190422005216 16 315 8.0 14.5 0.00 0.08 0.08 57 1016.5
20190422005116 16 90 6.4 12.9 0.00 0.08 0.08 57 1016.5
20190422005016 16 22 6.4 11.3 0.00 0.08 0.08 57 1016.4
20190422004916 16 0 6.4 14.5 0.00 0.08 0.08 57 1016.5
20190422004816 16 0 8.0 20.9 0.00 0.08 0.08 56 1016.4
20190422004716 16 22 9.7 20.9 0.00 0.08 0.08 57 1016.5
20190422004616 16 0 8.0 19.3 0.00 0.08 0.08 57 1016.5
20190422004516 16 315 6.4 11.3 0.00 0.08 0.08 58 1016.5
20190422004416 16 315 6.4 12.9 0.00 0.08 0.08 59 1016.4
20190422004316 16 45 1.6 3.2 0.00 0.08 0.08 58 1016.5
20190422004216 16 67 6.4 14.5 0.00 0.08 0.08 59 1016.5
20190422004117 16 45 4.8 8.0 0.00 0.08 0.08 60 1016.5
20190422004016 16 22 4.8 9.7 0.00 0.08 0.08 61 1016.5
20190422003916 16 337 1.6 6.4 0.00 0.08 0.08 60 1016.5
20190422003816 16 22 6.4 14.5 0.00 0.08 0.08 58 1016.6
20190422003716 16 0 6.4 9.7 0.00 0.08 0.08 61 1016.5
20190422003616 16 22 4.8 8.0 0.00 0.08 0.08 59 1016.5
20190422003516 16 22 8.0 11.3 0.00 0.08 0.08 58 1016.5
20190422003416 16 22 6.4 9.7 0.00 0.08 0.08 58 1016.5
20190422003316 16 45 4.8 8.0 0.00 0.08 0.08 60 1016.5
20190422003216 16 45 6.4 11.3 0.00 0.08 0.08 58 1016.5
20190422003116 16 337 4.8 9.7 0.00 0.08 0.08 57 1016.5
20190422003016 16 315 8.0 11.3 0.00 0.08 0.08 57 1016.4
20190422002916 16 315 6.4 11.3 0.00 0.08 0.08 57 1016.4
20190422002816 16 337 4.8 6.4 0.00 0.08 0.08 58 1016.4
20190422002716 16 45 4.8 14.5 0.00 0.08 0.08 59 1016.3
20190422002616 16 337 3.2 6.4 0.00 0.08 0.08 59 1016.3
20190422002516 16 337 4.8 8.0 0.00 0.08 0.08 58 1016.3
20190422002416 16 337 4.8 9.7 0.00 0.08 0.08 58 1016.3
20190422002316 16 45 8.0 16.1 0.00 0.08 0.08 58 1016.3
20190422002216 16 45 6.4 8.0 0.00 0.08 0.08 58 1016.2
20190422002116 16 45 4.8 8.0 0.00 0.08 0.08 57 1016.2
20190422002016 16 315 6.4 11.3 0.00 0.08 0.08 57 1016.2
20190422001916 16 337 6.4 12.9 0.00 0.08 0.08 57 1016.1
20190422001815 16 315 8.0 12.9 0.00 0.08 0.08 57 1016.1
20190422001715 16 337 4.8 12.9 0.00 0.08 0.08 58 1016.2
20190422001616 16 22 6.4 16.1 0.00 0.08 0.08 58 1016.1
20190422001515 16 45 6.4 9.7 0.00 0.08 0.08 57 1016.1
20190422001416 16 337 6.4 9.7 0.00 0.08 0.08 57 1016.1
20190422001316 16 0 3.2 4.8 0.00 0.08 0.08 58 1016.0
20190422001216 16 0 3.2 6.4 0.00 0.08 0.08 57 1016.0
20190422001116 16 315 6.4 11.3 0.00 0.08 0.08 56 1016.0
20190422001016 16 315 6.4 9.7 0.00 0.08 0.08 57 1016.0
20190422000916 16 45 9.7 17.7 0.00 0.08 0.08 57 1016.0
20190422000816 16 337 4.8 8.0 0.00 0.08 0.08 56 1016.0
20190422000717 16 315 8.0 11.3 0.00 0.08 0.08 56 1016.0
20190422000616 16 315 3.2 6.4 0.00 0.08 0.08 57 1016.0
20190422000516 16 270 1.6 3.2 0.00 0.08 0.08 58 1016.1
20190422000416 16 225 3.2 3.2 0.00 0.08 0.08 58 1016.1
20190422000316 16 225 3.2 4.8 0.00 0.08 0.08 58 1016.1
20190422000216 16 270 3.2 4.8 0.00 0.08 0.08 58 1016.1
20190422000116 16 270 1.6 3.2 0.00 0.08 0.08 58 1016.1
20190422000015 16 0 1.6 3.2 0.00 0.08 0.08 58 1016.1
20190421235916 16 67 1.6 3.2 0.00 0.08 0.08 58 1016.1
20190421235815 16 45 4.8 8.0 0.00 0.08 0.08 58 1016.1
20190421235716 16 22 4.8 6.4 0.00 0.08 0.08 58 1016.1
20190421235616 16 337 4.8 9.7 0.00 0.08 0.08 58 1016.0
20190421235516 16 337 3.2 6.4 0.00 0.08 0.08 58 1016.0
20190421235416 16 22 1.6 4.8 0.00 0.08 0.08 58 1016.0
20190421235315 16 67 3.2 4.8 0.00 0.08 0.08 57 1016.0
20190421235216 16 45 1.6 3.2 0.00 0.08 0.08 58 1016.1
20190421235116 16 45 4.8 9.7 0.00 0.08 0.08 58 1016.1
20190421235016 16 22 1.6 4.8 0.00 0.08 0.08 57 1016.1
20190421234916 16 337 6.4 9.7 0.00 0.08 0.08 57 1016.1
20190421234816 16 337 6.4 11.3 0.00 0.08 0.08 57 1016.0
20190421234716 16 0 6.4 11.3 0.00 0.08 0.08 57 1016.0
20190421234616 16 315 4.8 9.7 0.00 0.08 0.08 58 1016.1
20190421234516 16 22 8.0 14.5 0.00 0.08 0.08 59 1016.1
20190421234416 16 0 4.8 8.0 0.00 0.08 0.08 58 1016.0
20190421234316 16 90 3.2 4.8 0.00 0.08 0.08 58 1016.1
20190421234215 16 45 1.6 3.2 0.00 0.08 0.08 59 1016.0
20190421234116 16 22 1.6 3.2 0.00 0.08 0.08 58 1016.1
20190421234016 16 0 3.2 4.8 0.00 0.08 0.08 57 1016.1
20190421233916 16 45 4.8 8.0 0.00 0.08 0.08 57 1016.1
20190421233816 16 67 4.8 9.7 0.00 0.08 0.08 56 1016.1
20190421233716 16 315 9.7 14.5 0.00 0.08 0.08 56 1016.0
20190421233616 16 0 6.4 9.7 0.00 0.08 0.08 57 1015.9
20190421233516 16 0 4.8 9.7 0.00 0.08 0.08 58 1015.9
20190421233416 16 45 3.2 4.8 0.00 0.08 0.08 57 1016.0
20190421233316 16 67 3.2 4.8 0.00 0.08 0.08 57 1015.9
20190421233216 16 45 3.2 6.4 0.00 0.08 0.08 57 1016.0
20190421233116 16 67 4.8 8.0 0.00 0.08 0.08 57 1016.0
20190421233016 16 67 3.2 6.4 0.00 0.08 0.08 57 1016.0
20190421232916 16 45 3.2 4.8 0.00 0.08 0.08 57 1016.0
20190421232816 16 90 3.2 6.4 0.00 0.08 0.08 57 1016.0
20190421232716 16 90 4.8 8.0 0.00 0.08 0.08 58 1016.0
20190421232616 16 112 3.2 4.8 0.00 0.08 0.08 59 1016.0
20190421232516 15 22 1.6 4.8 0.00 0.08 0.08 59 1016.0
20190421232416 15 22 3.2 4.8 0.00 0.08 0.08 59 1015.9
20190421232316 15 315 3.2 6.4 0.00 0.08 0.08 58 1016.0
20190421232216 15 22 4.8 6.4 0.00 0.08 0.08 60 1015.9
20190421232116 15 22 3.2 4.8 0.00 0.08 0.08 61 1015.9
20190421232016 15 22 3.2 6.4 0.00 0.08 0.08 61 1015.9
20190421231916 15 45 1.6 6.4 0.00 0.08 0.08 61 1015.9
20190421231816 15 45 1.6 3.2 0.00 0.08 0.08 61 1015.9
20190421231716 15 45 1.6 3.2 0.00 0.08 0.08 61 1015.8
20190421231615 15 0.0 3.2 0.00 0.08 0.08 60 1015.8
20190421231516 15 22 1.6 3.2 0.00 0.08 0.08 61 1015.9
20190421231416 15 22 1.6 3.2 0.00 0.08 0.08 62 1015.9
20190421231316 15 45 3.2 8.0 0.00 0.08 0.08 62 1015.8
20190421231216 15 67 3.2 4.8 0.00 0.08 0.08 62 1015.7
20190421231116 14 67 3.2 4.8 0.00 0.08 0.08 63 1015.7
20190421231016 14 0 1.6 3.2 0.00 0.08 0.08 63 1015.7
20190421230916 14 337 1.6 3.2 0.00 0.08 0.08 62 1015.7
20190421230816 14 0 3.2 4.8 0.00 0.08 0.08 62 1015.7
20190421230716 14 292 4.8 11.3 0.00 0.08 0.08 62 1015.8
20190421230616 14 0 1.6 4.8 0.00 0.08 0.08 62 1015.7
20190421230515 14 337 3.2 8.0 0.00 0.08 0.08 64 1015.8
20190421230416 13 22 3.2 6.4 0.00 0.08 0.08 64 1015.7
20190421230316 13 45 3.2 6.4 0.00 0.08 0.08 65 1015.8
20190421230216 13 67 3.2 6.4 0.00 0.08 0.08 64 1015.7
20190421230116 13 22 4.8 8.0 0.00 0.08 0.08 64 1015.7
20190421230016 13 45 3.2 6.4 0.00 0.08 0.08 64 1015.7
20190421225915 13 22 3.2 6.4 0.00 0.08 0.08 63 1015.8
20190421225815 13 337 4.8 8.0 0.00 0.08 0.08 64 1015.7
20190421225716 13 0 4.8 8.0 0.00 0.08 0.08 65 1015.7
20190421225616 13 45 3.2 8.0 0.00 0.08 0.08 65 1015.7
20190421225515 13 112 4.8 6.4 0.00 0.08 0.08 65 1015.6
20190421225416 13 45 4.8 6.4 0.00 0.08 0.08 66 1015.7
20190421225315 13 0 3.2 4.8 0.00 0.08 0.08 66 1015.6
20190421225216 13 337 3.2 8.0 0.00 0.08 0.08 67 1015.6
20190421225116 13 22 3.2 4.8 0.00 0.08 0.08 67 1015.6
20190421225015 13 315 1.6 3.2 0.00 0.08 0.08 66 1015.6
20190421224916 13 0.0 1.6 0.00 0.08 0.08 66 1015.6
20190421224815 13 315 3.2 4.8 0.00 0.08 0.08 66 1015.6
20190421224715 12 337 1.6 4.8 0.00 0.08 0.08 67 1015.6
20190421224615 12 337 1.6 3.2 0.00 0.08 0.08 67 1015.6
20190421224517 12 337 3.2 6.4 0.00 0.08 0.08 67 1015.6
20190421224415 12 45 1.6 3.2 0.00 0.08 0.08 67 1015.6
20190421224316 12 45 1.6 4.8 0.00 0.08 0.08 67 1015.6
20190421224216 12 22 3.2 8.0 0.00 0.08 0.08 67 1015.6
20190421224116 12 22 1.6 3.2 0.00 0.08 0.08 67 1015.6
20190421224015 12 0.0 3.2 0.00 0.08 0.08 67 1015.6
20190421223915 12 22 3.2 4.8 0.00 0.08 0.08 67 1015.6
20190421223816 12 67 1.6 4.8 0.00 0.08 0.08 67 1015.6
20190421223716 12 337 1.6 3.2 0.00 0.08 0.08 68 1015.6
20190421223615 12 315 1.6 1.6 0.00 0.08 0.08 67 1015.6
20190421223516 12 315 1.6 3.2 0.00 0.08 0.08 66 1015.6
20190421223416 12 22 3.2 8.0 0.00 0.08 0.08 66 1015.6
20190421223315 12 22 3.2 9.7 0.00 0.08 0.08 67 1015.6
20190421223215 12 22 1.6 4.8 0.00 0.08 0.08 66 1015.6
20190421223117 12 337 4.8 9.7 0.00 0.08 0.08 66 1015.6
20190421223016 12 22 3.2 6.4 0.00 0.08 0.08 66 1015.6
20190421222915 12 22 4.8 8.0 0.00 0.08 0.08 67 1015.6
20190421222816 12 22 1.6 4.8 0.00 0.08 0.08 67 1015.6
20190421222716 12 22 3.2 6.4 0.00 0.08 0.08 67 1015.5
20190421222616 12 22 3.2 4.8 0.00 0.08 0.08 66 1015.5
20190421222516 12 22 3.2 4.8 0.00 0.08 0.08 66 1015.5
20190421222416 12 315 6.4 11.3 0.00 0.08 0.08 68 1015.6
20190421222315 12 22 3.2 6.4 0.00 0.08 0.08 68 1015.5
20190421222216 12 45 3.2 6.4 0.00 0.08 0.08 67 1015.5
20190421222116 12 45 4.8 6.4 0.00 0.08 0.08 68 1015.4
20190421222016 12 0 3.2 6.4 0.00 0.08 0.08 68 1015.4
20190421221916 12 0 1.6 4.8 0.00 0.08 0.08 68 1015.3
20190421221815 12 337 3.2 8.0 0.00 0.08 0.08 68 1015.3
20190421221716 12 315 1.6 4.8 0.00 0.08 0.08 68 1015.4
20190421221616 12 337 3.2 6.4 0.00 0.08 0.08 68 1015.3
20190421221516 12 315 3.2 6.4 0.00 0.08 0.08 68 1015.3
20190421221415 12 22 4.8 11.3 0.00 0.08 0.08 68 1015.4
20190421221316 12 45 4.8 11.3 0.00 0.08 0.08 68 1015.3
20190421221216 12 337 4.8 6.4 0.00 0.08 0.08 68 1015.3
20190421221115 12 0 1.6 4.8 0.00 0.08 0.08 68 1015.3
20190421221015 12 22 3.2 4.8 0.00 0.08 0.08 68 1015.3
20190421220916 12 0 4.8 6.4 0.00 0.08 0.08 67 1015.2
20190421220816 12 337 3.2 4.8 0.00 0.08 0.08 67 1015.2
20190421220715 12 337 1.6 4.8 0.00 0.08 0.08 67 1015.2
20190421220616 12 337 4.8 8.0 0.00 0.08 0.08 66 1015.1
20190421220516 12 337 3.2 6.4 0.00 0.08 0.08 66 1015.1
20190421220416 12 315 4.8 8.0 0.00 0.08 0.08 66 1015.1
20190421220315 12 315 6.4 11.3 0.00 0.08 0.08 66 1015.1
20190421220215 12 315 4.8 12.9 0.00 0.08 0.08 67 1015.1
20190421220118 12 337 4.8 8.0 0.00 0.08 0.08 67 1015.1
20190421220015 12 0 4.8 11.3 0.00 0.08 0.08 68 1015.1
20190421215916 12 337 3.2 6.4 0.00 0.08 0.08 67 1015.1
20190421215816 12 337 4.8 8.0 0.00 0.08 0.08 67 1015.1
20190421215715 12 45 3.2 6.4 0.00 0.08 0.08 68 1015.1
20190421215616 12 337 4.8 8.0 0.00 0.08 0.08 67 1015.1
20190421215516 12 337 6.4 9.7 0.00 0.08 0.08 66 1015.0
20190421215416 12 315 6.4 11.3 0.00 0.08 0.08 67 1015.0
20190421215315 12 337 6.4 16.1 0.00 0.08 0.08 67 1015.0
20190421215216 12 337 4.8 9.7 0.00 0.08 0.08 67 1015.0
20190421215115 12 337 6.4 8.0 0.00 0.08 0.08 67 1015.0
20190421215016 12 337 4.8 8.0 0.00 0.08 0.08 67 1014.9
20190421214915 12 22 4.8 11.3 0.00 0.08 0.08 68 1014.9
20190421214816 12 337 3.2 6.4 0.00 0.08 0.08 67 1015.0
20190421214715 12 337 6.4 9.7 0.00 0.08 0.08 68 1014.9
20190421214615 12 45 3.2 9.7 0.00 0.08 0.08 68 1014.9
20190421214515 12 337 6.4 11.3 0.00 0.08 0.08 68 1014.9
20190421214415 12 0 4.8 9.7 0.00 0.08 0.08 68 1014.9
20190421214315 12 45 4.8 8.0 0.00 0.08 0.08 67 1014.9
20190421214215 12 315 6.4 9.7 0.00 0.08 0.08 68 1015.0
20190421214116 12 337 4.8 9.7 0.00 0.08 0.08 68 1014.9
20190421214015 12 337 4.8 8.0 0.00 0.08 0.08 68 1014.9
20190421213916 12 22 6.4 11.3 0.00 0.08 0.08 68 1014.9
20190421213815 12 22 6.4 9.7 0.00 0.08 0.08 69 1014.9
20190421213716 12 22 4.8 12.9 0.00 0.08 0.08 69 1015.0
20190421213615 12 22 3.2 8.0 0.00 0.08 0.08 69 1014.9
20190421213515 12 315 4.8 9.7 0.00 0.08 0.08 69 1015.0
20190421213415 12 315 3.2 6.4 0.00 0.08 0.08 69 1014.9
20190421213315 12 337 3.2 6.4 0.00 0.08 0.08 68 1014.9
20190421213215 12 22 3.2 6.4 0.00 0.08 0.08 69 1014.9
20190421213115 12 0 3.2 6.4 0.00 0.08 0.08 69 1014.9
20190421213015 12 67 3.2 6.4 0.00 0.08 0.08 69 1014.9
20190421212915 12 45 3.2 6.4 0.00 0.08 0.08 69 1014.8
20190421212815 12 0 3.2 4.8 0.00 0.08 0.08 69 1014.8
20190421212715 12 337 1.6 4.8 0.00 0.08 0.08 68 1014.8
20190421212615 12 337 1.6 4.8 0.00 0.08 0.08 68 1014.8
20190421212516 12 337 3.2 4.8 0.00 0.08 0.08 68 1014.8
20190421212415 12 337 3.2 4.8 0.00 0.08 0.08 68 1014.8
20190421212315 12 0.0 3.2 0.00 0.08 0.08 68 1014.8
20190421212215 12 315 3.2 6.4 0.00 0.08 0.08 67 1014.8
20190421212115 12 337 1.6 4.8 0.00 0.08 0.08 67 1014.8
20190421212015 12 337 1.6 3.2 0.00 0.08 0.08 67 1014.8
20190421211915 12 315 3.2 4.8 0.00 0.08 0.08 67 1014.8
20190421211815 12 315 1.6 4.8 0.00 0.08 0.08 68 1014.8
20190421211716 12 337 1.6 4.8 0.00 0.08 0.08 68 1014.8
20190421211616 12 45 3.2 6.4 0.00 0.08 0.08 68 1014.7
20190421211515 12 315 3.2 8.0 0.00 0.08 0.08 67 1014.7
20190421211416 12 315 3.2 6.4 0.00 0.08 0.08 67 1014.6
20190421211315 12 337 1.6 4.8 0.00 0.08 0.08 67 1014.6
20190421211215 12 337 3.2 6.4 0.00 0.08 0.08 67 1014.6
20190421211115 12 337 3.2 4.8 0.00 0.08 0.08 67 1014.5
20190421211015 12 0 1.6 3.2 0.00 0.08 0.08 67 1014.5
20190421210915 12 0 1.6 3.2 0.00 0.08 0.08 67 1014.5
20190421210816 12 0 1.6 3.2 0.00 0.08 0.08 68 1014.4
20190421210715 12 0 3.2 4.8 0.00 0.08 0.08 67 1014.4
20190421210615 12 0 3.2 6.4 0.00 0.08 0.08 67 1014.4
20190421210515 12 45 3.2 6.4 0.00 0.08 0.08 67 1014.5
20190421210415 12 0 4.8 8.0 0.00 0.08 0.08 67 1014.4
20190421210315 12 22 3.2 8.0 0.00 0.08 0.08 67 1014.4
20190421210216 12 337 4.8 8.0 0.00 0.08 0.08 67 1014.4
20190421210115 12 337 3.2 8.0 0.00 0.08 0.08 67 1014.4
20190421210015 12 337 4.8 8.0 0.00 0.08 0.08 67 1014.4
20190421205915 12 337 4.8 9.7 0.00 0.08 0.08 66 1014.4
20190421205815 12 337 4.8 9.7 0.00 0.08 0.08 67 1014.4
20190421205715 12 22 3.2 8.0 0.00 0.08 0.08 68 1014.3
20190421205615 12 315 3.2 6.4 0.00 0.08 0.08 68 1014.4
20190421205515 12 0 3.2 4.8 0.00 0.08 0.08 67 1014.4
20190421205415 12 0 3.2 8.0 0.00 0.08 0.08 67 1014.4
20190421205315 12 22 3.2 6.4 0.00 0.08 0.08 67 1014.3
20190421205216 12 337 3.2 8.0 0.00 0.08 0.08 66 1014.3
20190421205115 12 315 4.8 8.0 0.00 0.08 0.08 66 1014.4
20190421205015 12 337 4.8 8.0 0.00 0.08 0.08 66 1014.3
20190421204916 12 337 4.8 6.4 0.00 0.08 0.08 65 1014.3
20190421204815 12 315 3.2 4.8 0.00 0.08 0.08 65 1014.2
20190421204715 12 315 3.2 6.4 0.00 0.08 0.08 64 1014.3
20190421204615 13 315 4.8 8.0 0.00 0.08 0.08 64 1014.3
20190421204515 13 337 1.6 6.4 0.00 0.08 0.08 64 1014.2
20190421204415 13 225 1.6 6.4 0.00 0.08 0.08 63 1014.1
20190421204315 13 315 4.8 11.3 0.00 0.08 0.08 63 1014.2
20190421204216 13 315 1.6 4.8 0.00 0.08 0.08 63 1014.1
20190421204115 13 315 1.6 4.8 0.00 0.08 0.08 64 1014.1
20190421204015 13 0.0 1.6 0.00 0.08 0.08 63 1014.1
20190421203915 13 0.0 1.6 0.00 0.08 0.08 62 1014.0
20190421203815 13 337 3.2 4.8 0.00 0.08 0.08 62 1013.9
20190421203715 13 315 3.2 6.4 0.00 0.08 0.08 62 1013.9
20190421203615 13 337 4.8 8.0 0.00 0.08 0.08 62 1013.9
20190421203515 13 315 3.2 9.7 0.00 0.08 0.08 62 1013.8
20190421203415 13 337 3.2 6.4 0.00 0.08 0.08 62 1013.8
20190421203315 13 0 3.2 6.4 0.00 0.08 0.08 62 1013.7
20190421203215 13 337 3.2 6.4 0.00 0.08 0.08 62 1013.6
20190421203115 13 315 3.2 4.8 0.00 0.08 0.08 62 1013.6
20190421203015 13 315 3.2 6.4 0.00 0.08 0.08 62 1013.6
20190421202915 13 315 4.8 8.0 0.00 0.08 0.08 62 1013.6
20190421202815 13 337 4.8 11.3 0.00 0.08 0.08 62 1013.6
20190421202716 13 0 4.8 8.0 0.00 0.08 0.08 62 1013.6
20190421202615 13 337 6.4 11.3 0.00 0.08 0.08 63 1013.6
20190421202515 13 337 3.2 8.0 0.00 0.08 0.08 62 1013.6
20190421202415 13 315 3.2 6.4 0.00 0.08 0.08 62 1013.5
20190421202316 13 22 3.2 6.4 0.00 0.08 0.08 62 1013.5
20190421202215 13 22 3.2 8.0 0.00 0.08 0.08 62 1013.4
20190421202115 13 22 4.8 9.7 0.00 0.08 0.08 62 1013.4
20190421202015 13 45 6.4 11.3 0.00 0.08 0.08 62 1013.4
20190421201915 13 22 4.8 8.0 0.00 0.08 0.08 63 1013.4
20190421201815 13 22 8.0 12.9 0.00 0.08 0.08 63 1013.4
20190421201715 13 0 4.8 9.7 0.00 0.08 0.08 63 1013.4
20190421201615 13 337 4.8 11.3 0.00 0.08 0.08 62 1013.4
20190421201515 13 337 4.8 8.0 0.00 0.08 0.08 64 1013.3
20190421201415 13 0 6.4 8.0 0.00 0.08 0.08 64 1013.3
20190421201315 13 45 6.4 9.7 0.00 0.08 0.08 65 1013.3
20190421201215 13 337 3.2 9.7 0.00 0.08 0.08 65 1013.4
20190421201115 13 45 4.8 12.9 0.00 0.08 0.08 65 1013.4
20190421201015 13 0 4.8 9.7 0.00 0.08 0.08 64 1013.4
20190421200915 13 337 4.8 6.4 0.00 0.08 0.08 66 1013.4
20190421200815 13 315 6.4 19.3 0.00 0.08 0.08 67 1013.4
20190421200716 13 315 4.8 8.0 0.00 0.08 0.08 68 1013.3
20190421200615 13 337 6.4 19.3 0.00 0.08 0.08 69 1013.4
20190421200515 13 315 4.8 9.7 0.00 0.08 0.08 69 1013.3
20190421200415 13 337 4.8 8.0 0.00 0.08 0.08 69 1013.3
20190421200315 13 337 4.8 8.0 0.00 0.08 0.08 68 1013.3
20190421200215 13 0 4.8 9.7 0.00 0.08 0.08 68 1013.3
20190421200115 13 337 8.0 16.1 0.00 0.08 0.08 68 1013.4
20190421200015 13 337 6.4 9.7 0.00 0.08 0.08 68 1013.3
20190421195915 13 337 6.4 14.5 0.00 0.08 0.08 68 1013.3
20190421195815 13 0 4.8 6.4 0.00 0.08 0.08 68 1013.3
20190421195715 13 337 4.8 11.3 0.00 0.08 0.08 68 1013.3
20190421195615 13 337 3.2 8.0 0.00 0.08 0.08 68 1013.3
20190421195515 13 337 3.2 6.4 0.00 0.08 0.08 68 1013.2
20190421195415 13 22 4.8 12.9 0.00 0.08 0.08 68 1013.1
20190421195315 13 337 4.8 9.7 0.00 0.08 0.08 68 1013.1
20190421195215 13 337 3.2 4.8 0.00 0.08 0.08 68 1013.0
20190421195115 13 22 4.8 8.0 0.00 0.08 0.08 68 1013.0
20190421195015 13 0 3.2 4.8 0.00 0.08 0.08 67 1013.0
20190421194915 13 22 3.2 6.4 0.00 0.08 0.08 67 1013.0
20190421194816 13 0 3.2 6.4 0.00 0.08 0.08 67 1013.0
20190421194715 13 45 4.8 8.0 0.00 0.08 0.08 67 1013.0
20190421194615 13 337 4.8 8.0 0.00 0.08 0.08 67 1013.0
20190421194515 13 337 4.8 8.0 0.00 0.08 0.08 66 1013.0
20190421194415 13 337 4.8 9.7 0.00 0.08 0.08 67 1012.9
20190421194315 13 0 4.8 8.0 0.00 0.08 0.08 66 1012.8
20190421194215 13 315 4.8 9.7 0.00 0.08 0.08 67 1012.8
20190421194115 13 315 8.0 12.9 0.00 0.08 0.08 66 1012.8
20190421194015 13 0 6.4 9.7 0.00 0.08 0.08 67 1012.7
20190421193915 13 337 4.8 8.0 0.00 0.08 0.08 66 1012.7
20190421193815 13 315 8.0 12.9 0.00 0.08 0.08 66 1012.6
20190421193715 13 315 8.0 16.1 0.00 0.08 0.08 67 1012.7
20190421193615 13 315 8.0 16.1 0.00 0.08 0.08 67 1012.5
20190421193515 13 337 8.0 12.9 0.00 0.08 0.08 67 1012.6
20190421193415 13 337 6.4 17.7 0.00 0.08 0.08 67 1012.6
20190421193315 13 315 11.3 17.7 0.00 0.08 0.08 67 1012.6
20190421193215 13 315 8.0 12.9 0.00 0.08 0.08 67 1012.6
20190421193115 13 337 8.0 11.3 0.00 0.08 0.08 66 1012.5
20190421193016 13 315 8.0 12.9 0.00 0.08 0.08 66 1012.6
20190421192915 13 315 6.4 11.3 0.00 0.08 0.08 66 1012.5
20190421192815 13 315 6.4 12.9 0.00 0.08 0.08 66 1012.5
20190421192715 13 337 9.7 16.1 0.00 0.08 0.08 66 1012.5
20190421192615 13 315 6.4 16.1 0.00 0.08 0.08 66 1012.5
20190421192515 13 337 4.8 12.9 0.00 0.08 0.08 67 1012.5
20190421192415 13 225 4.8 9.7 0.00 0.08 0.08 67 1012.5
20190421192315 13 315 4.8 11.3 0.00 0.08 0.08 68 1012.5
20190421192215 13 337 3.2 4.8 0.00 0.08 0.08 69 1012.5
20190421192115 13 315 1.6 3.2 0.00 0.08 0.08 69 1012.5
20190421192015 13 292 3.2 8.0 0.00 0.08 0.08 69 1012.5
20190421191915 13 315 1.6 3.2 0.00 0.08 0.08 69 1012.4
20190421191815 13 315 3.2 6.4 0.00 0.08 0.08 69 1012.5
20190421191716 13 0 1.6 4.8 0.00 0.08 0.08 69 1012.4
20190421191615 13 0 3.2 6.4 0.00 0.08 0.08 69 1012.4
20190421191531 13 337 3.2 6.4 0.00 0.08 0.08 69 1012.4
20190421191429 13 337 6.4 9.7 0.00 0.08 0.08 70 1012.4
20190421191315 13 337 4.8 6.4 0.00 0.08 0.08 70 1012.4
20190421191215 13 337 1.6 4.8 0.00 0.08 0.08 70 1012.4
20190421191115 13 0 3.2 8.0 0.00 0.08 0.08 70 1012.5
20190421191015 13 67 3.2 8.0 0.00 0.08 0.08 70 1012.4
20190421190915 13 337 4.8 8.0 0.00 0.08 0.08 70 1012.4
20190421190815 13 337 4.8 8.0 0.00 0.08 0.08 70 1012.4
20190421190715 13 0 3.2 6.4 0.00 0.08 0.08 70 1012.4
20190421190615 13 45 6.4 11.3 0.00 0.08 0.08 70 1012.4
20190421190515 13 337 3.2 6.4 0.00 0.08 0.08 70 1012.3
20190421190415 13 0 4.8 9.7 0.00 0.08 0.08 70 1012.2
20190421190315 13 0 4.8 8.0 0.00 0.08 0.08 70 1012.3
20190421190215 13 337 3.2 9.7 0.00 0.08 0.08 71 1012.3
20190421190115 13 337 4.8 8.0 0.00 0.08 0.08 71 1012.2
20190421190015 13 22 4.8 8.0 0.00 0.08 0.08 73 1012.2
20190421185915 14 67 3.2 6.4 0.00 0.08 0.08 73 1012.2
20190421185815 14 22 4.8 9.7 0.00 0.08 0.08 73 1012.1
20190421185715 14 45 4.8 11.3 0.00 0.08 0.08 73 1012.2
20190421185615 14 337 3.2 4.8 0.00 0.08 0.08 73 1012.2
20190421185515 14 22 3.2 6.4 0.00 0.08 0.08 73 1012.1
20190421185415 14 337 4.8 6.4 0.00 0.08 0.08 73 1012.1
20190421185315 14 45 3.2 6.4 0.00 0.08 0.08 74 1012.1
20190421185215 14 0 3.2 4.8 0.00 0.08 0.08 74 1012.1
20190421185115 14 337 4.8 8.0 0.00 0.08 0.08 75 1012.0
20190421185015 14 337 3.2 4.8 0.00 0.08 0.08 75 1012.1
20190421184915 14 0 1.6 4.8 0.00 0.08 0.08 77 1012.1
20190421184815 14 22 1.6 3.2 0.00 0.08 0.08 77 1012.0
20190421184715 14 315 3.2 4.8 0.00 0.08 0.08 76 1012.0
20190421184615 14 315 3.2 6.4 0.00 0.08 0.08 76 1012.1
20190421184515 14 337 3.2 6.4 0.00 0.08 0.08 77 1012.1
20190421184415 14 337 3.2 6.4 0.00 0.08 0.08 78 1012.1
20190421184315 14 0 4.8 8.0 0.00 0.08 0.08 79 1012.0
20190421184215 14 337 1.6 8.0 0.00 0.08 0.08 79 1012.1
20190421184115 14 337 1.6 6.4 0.00 0.08 0.08 79 1012.0
20190421184015 14 337 3.2 6.4 0.00 0.08 0.08 80 1012.0
20190421183915 14 337 1.6 3.2 0.00 0.08 0.08 81 1012.0
20190421183815 14 337 1.6 3.2 0.00 0.08 0.08 81 1011.9
20190421183715 14 45 1.6 3.2 0.00 0.08 0.08 81 1011.9
20190421183616 14 22 1.6 3.2 0.00 0.08 0.08 82 1011.9
20190421183515 14 22 1.6 3.2 0.00 0.08 0.08 82 1011.9
20190421183415 14 22 1.6 3.2 0.00 0.08 0.08 82 1011.8
20190421183315 14 22 4.8 6.4 0.00 0.08 0.08 82 1011.8
20190421183215 14 0 1.6 4.8 0.00 0.08 0.08 82 1011.7
20190421183115 14 22 3.2 6.4 0.00 0.08 0.08 82 1011.6
20190421183015 14 22 4.8 8.0 0.00 0.08 0.08 82 1011.6
20190421182915 14 337 1.6 9.7 0.00 0.08 0.08 82 1011.6
20190421182815 14 0.0 1.6 0.00 0.08 0.08 82 1011.6
20190421182715 15 0.0 1.6 0.00 0.08 0.08 82 1011.6
20190421182615 15 22 1.6 4.8 0.00 0.08 0.08 82 1011.5
20190421182515 15 0.0 3.2 0.00 0.08 0.08 82 1011.5
20190421182415 15 22 3.2 4.8 0.00 0.08 0.08 82 1011.5
20190421182315 15 22 3.2 6.4 0.00 0.08 0.08 82 1011.5
20190421182215 15 22 3.2 6.4 0.00 0.08 0.08 82 1011.5
20190421182115 15 22 3.2 6.4 0.00 0.08 0.08 82 1011.6
20190421182015 15 90 1.6 3.2 0.00 0.08 0.08 82 1011.5
20190421181915 15 90 1.6 4.8 0.00 0.08 0.08 82 1011.4
20190421181816 15 45 3.2 4.8 0.00 0.08 0.08 82 1011.4
20190421181715 15 22 3.2 6.4 0.00 0.08 0.08 82 1011.4
20190421181615 15 22 3.2 6.4 0.00 0.08 0.08 82 1011.3
20190421181515 15 90 1.6 4.8 0.00 0.08 0.08 82 1011.3
20190421181415 15 45 1.6 6.4 0.00 0.08 0.08 82 1011.2
20190421181315 15 45 1.6 4.8 0.00 0.08 0.08 82 1011.2
20190421181215 15 90 4.8 9.7 0.00 0.08 0.08 82 1011.3
20190421181115 15 22 6.4 11.3 0.00 0.08 0.08 82 1011.3
20190421181015 15 45 4.8 11.3 0.00 0.08 0.08 82 1011.3
20190421180915 15 22 3.2 6.4 0.00 0.08 0.08 83 1011.2
20190421180815 15 0 3.2 8.0 0.00 0.08 0.08 83 1011.3
20190421180715 15 45 4.8 8.0 0.00 0.08 0.08 83 1011.3
20190421180615 15 22 6.4 11.3 0.00 0.08 0.08 83 1011.2
20190421180515 15 22 4.8 9.7 0.00 0.08 0.08 83 1011.2
20190421180415 15 22 4.8 9.7 0.00 0.08 0.08 83 1011.2
20190421180315 15 22 4.8 9.7 0.00 0.08 0.08 83 1011.1
20190421180215 15 90 4.8 8.0 0.00 0.08 0.08 83 1011.0
20190421180015 15 22 3.2 4.8 0.00 0.08 0.08 83 1011.0
20190421175915 15 22 3.2 8.0 0.00 0.08 0.08 83 1011.0
20190421175815 15 22 4.8 6.4 0.00 0.08 0.08 83 1011.0
20190421175715 15 22 3.2 3.2 0.00 0.08 0.08 83 1011.0
20190421175615 15 22 3.2 9.7 0.00 0.08 0.08 83 1011.0